[{"header": {"dx": 0.06612293990616946, "dy": 0.0552356325346848, "nx": 98, "ny": 59, "la1": 35.046912555036876, "la2": 31.78801023549047, "lo1": -121.43107172385933, "lo2": -114.95102361305473, "refTime": "2026041715", "parameterCategory": 1, "parameterNumber": 2}, "data": [-1.11, -1.8, -1.8, -2.22, -2.23, -1.8, -1.61, -1.88, -1.88, -1.61, -1.84, -1.88, -2.6, -2.97, -3.95, -6.02, -6.94, -6.45, -6.58, -6.58, -6.71, -6.71, -5.75, -4.85, -4.15, -3.6, -3.47, -2.97, -2.68, -2.24, -1.79, 0.0, 0.0, 1.0, 1.58, 2.0, 1.34, 0.89, 0.0, 0.0, -3.95, -6.71, -7.97, -8.49, -8.49, -6.2, -5.51, -5.2, -4.54, -3.48, -2.84, -2.98, -2.98, -2.98, -2.53, -2.84, -2.98, -1.9, -1.58, 0.0, 0.0, 1.34, 1.79, 1.79, 1.26, 0.0, 0.0, 0.0, 0.0, 0.0, 1.13, 1.74, 2.53, 2.84, 2.84, 3.58, 3.79, 4.11, 4.29, 3.47, 3.47, 4.11, 4.43, 4.54, 4.19, 3.83, 3.9, 4.02, 4.57, 3.47, 1.65, 0.0, -0.78, -1.58, -2.31, -2.39, -2.39, -2.39, -1.23, -1.58, -1.58, -1.76, -1.8, -1.6, -1.61, -1.88, -1.88, -1.84, -1.6, -2.41, -2.6, -2.0, -2.24, -3.58, -4.92, -5.81, -5.81, -5.36, -6.26, -6.26, -5.81, -5.64, -4.57, -3.6, -3.47, -3.13, -3.13, -2.97, -2.4, -1.0, 0.0, 0.0, -1.9, -4.02, -4.15, -2.98, -2.24, -4.02, -7.15, -9.32, -9.32, -8.49, -7.89, -6.7, -5.43, -5.21, -4.84, -4.19, -3.48, -3.48, -2.95, -2.68, -3.16, -2.68, -2.84, -1.74, -1.2, 0.0, 0.0, 0.0, 1.26, 1.26, 1.58, 1.0, 0.0, 0.0, 0.0, 1.2, 2.21, 2.98, 3.22, 3.58, 3.16, 3.48, 3.91, 4.11, 4.29, 3.47, 3.47, 4.11, 4.43, 4.54, 4.19, 3.83, 3.9, 4.02, 4.57, 3.47, 1.65, 0.0, -0.78, -1.58, -2.31, -2.39, -2.39, -2.39, -0.55, -1.23, -1.58, -1.58, -1.58, -1.6, -1.61, -1.88, -1.16, -1.13, -1.11, -2.23, -2.53, -1.9, -0.95, -2.24, -4.38, -5.09, -4.57, -4.66, -3.95, -5.36, -5.81, -5.81, -5.36, -4.02, -3.58, -3.13, -2.68, -2.68, -1.9, -1.13, -1.8, -5.2, -6.65, -8.22, -6.44, -5.06, -5.82, -8.33, -10.49, -10.26, -9.39, -8.33, -7.89, -7.03, -6.44, -5.82, -5.15, -4.29, -4.29, -4.01, -3.47, -3.63, -3.07, -3.48, -2.68, -2.84, -1.98, -0.85, 0.0, 0.0, 0.0, 0.0, 0.0, 0.0, 1.0, 1.58, 1.58, 2.24, 2.4, 3.35, 3.58, 3.79, 3.63, 3.47, 3.4, 4.16, 4.29, 3.4, 2.51, 3.2, 4.16, 4.58, 4.11, 3.83, 3.95, 4.82, 5.51, 5.77, 4.03, 1.6, 0.0, -0.96, -2.44, -3.25, -4.01, -4.06, 0.0, -0.55, -1.11, -1.11, -1.11, -1.13, -1.16, -1.16, -0.59, -0.57, -0.57, -1.27, -1.98, -1.74, -2.4, -2.97, -3.58, -3.93, -3.48, -1.8, -2.21, -2.8, -4.02, -4.47, -4.47, -4.47, -3.13, -2.68, -1.79, -1.34, 0.0, -1.2, -3.95, -7.5, -8.22, -8.0, -7.07, -5.69, -5.82, -9.06, -10.25, -8.94, -8.01, -8.14, -8.3, -8.0, -7.07, -6.39, -5.69, -4.95, -4.29, -4.16, -3.33, -3.22, -2.76, -2.95, -2.68, -2.84, -1.98, -2.21, -1.0, 0.0, 0.0, 0.0, 0.0, 0.0, 0.0, 1.26, 1.34, 0.89, 1.79, 2.98, 3.93, 4.19, 4.43, 4.16, 3.27, 4.0, 4.0, 3.32, 2.23, 2.57, 3.32, 3.27, 2.8, 2.68, 4.0, 5.51, 6.44, 6.32, 4.83, 1.7, 0.0, -1.2, -2.6, -3.45, -4.07, -4.01, 0.0, 0.0, -0.63, -1.11, -1.11, -1.13, -0.59, -0.51, 0.0, 0.0, 0.0, -0.53, -1.58, -2.4, -2.24, -1.9, -1.8, -1.83, -2.53, -1.66, -0.0, -0.0, -0.0, -0.0, -1.58, -2.21, -2.21, -2.68, -1.9, -1.0, -0.0, -2.54, -6.65, -8.45, -8.49, -8.05, -7.94, -5.6, -4.15, -7.6, -9.7, -8.49, -7.15, -6.65, -6.94, -6.94, -6.82, -6.11, -5.69, -5.24, -4.95, -4.16, -3.47, -3.22, -3.35, -3.48, -3.58, -3.22, -2.98, -2.4, -1.58, -1.58, -2.21, -1.8, -0.98, 0.0, 0.0, 0.0, -2.21, -2.21, 0.0, 1.98, 3.83, 5.2, 6.21, 5.06, 4.83, 4.12, 3.49, 3.7, 2.83, 2.39, 2.39, 2.57, 1.73, 1.72, 3.47, 5.69, 6.53, 5.64, 3.91, 1.84, 0.0, -2.21, -3.63, -4.12, -3.88, -3.39, 0.53, 0.0, 0.0, -0.57, -0.57, -0.59, -0.59, 0.0, 0.0, 0.57, 0.0, -0.71, -1.79, -1.79, -1.79, -1.2, -0.98, -0.88, -1.66, -1.98, -1.2, -0.0, -0.0, 1.27, -0.0, -0.0, -0.0, -1.8, -3.16, -2.73, -2.41, -4.8, -7.56, -9.36, -8.67, -8.36, -8.33, -4.82, -1.58, -4.22, -8.55, -11.13, -8.9, -7.11, -5.75, -5.51, -4.8, -4.19, -4.11, -4.43, -4.43, -4.43, -3.63, -3.35, -4.19, -4.22, -3.6, -3.9, -3.9, -2.54, -2.24, -2.21, -2.68, -2.53, -2.76, -1.66, -0.98, -1.83, -3.33, -3.4, -1.65, 0.0, 1.72, 4.29, 6.11, 6.39, 5.59, 4.5, 3.32, 3.21, 3.36, 3.16, 2.34, 1.56, 1.68, 1.68, 2.39, 4.8, 5.63, 4.07, 2.44, 0.89, 0.0, -1.8, -3.33, -4.2, -3.36, -3.39, 1.12, 0.53, 0.0, 0.0, 0.0, 0.0, 0.0, 0.0, 0.57, 0.57, 0.0, 0.0, 0.89, 0.45, -0.0, -1.2, -0.99, -0.0, -1.2, -1.26, -1.34, 1.34, -0.0, -0.0, -0.0, -0.0, -0.0, -1.6, -1.41, -2.68, -4.11, -5.75, -7.55, -8.9, -9.11, -9.33, -8.4, -5.72, 0.0, 0.87, -3.76, -10.55, -11.12, -8.37, -6.63, -5.21, -4.22, -2.98, -2.53, -3.79, -4.11, -3.79, -3.79, -4.22, -4.57, -4.38, -3.95, -4.02, -4.02, -3.58, -2.68, -2.98, -3.63, -3.47, -3.33, -2.47, -1.84, -1.72, -3.15, -3.25, -2.41, -1.58, 0.0, 1.63, 4.13, 4.92, 4.96, 4.26, 4.34, 4.8, 5.0, 4.06, 2.45, 0.81, 1.61, 2.18, 3.23, 3.91, 3.39, 2.39, 0.74, 0.0, -1.84, -3.63, -4.03, -4.07, -3.25, -3.16, 1.73, 1.14, 0.59, 0.0, 0.0, 0.0, 0.0, 0.57, 0.57, 0.57, 0.0, 0.0, 0.0, 1.34, 1.26, -0.0, -0.0, -0.0, -0.0, 0.89, 0.45, 0.45, 0.89, 0.89, 0.89, 1.79, -2.24, -0.0, -1.6, -1.55, -3.79, -5.2, -6.71, -7.97, -7.89, -8.24, -8.3, -6.01, -1.32, 1.52, 0.0, -5.93, -9.17, -8.91, -7.95, -7.9, -6.44, -4.6, -2.53, -3.16, -3.16, -3.58, -4.0, -4.15, -4.38, -3.95, -4.02, -4.02, -4.02, -3.58, -3.13, -3.22, -3.63, -3.11, -3.33, -3.55, -2.64, -1.84, -2.4, -2.44, -1.68, -0.79, 0.0, 0.0, 0.8, 2.15, 2.47, 3.45, 5.06, 6.45, 6.53, 5.1, 4.17, 2.81, 1.38, 1.44, 2.87, 2.57, 0.88, 0.0, 0.0, -1.45, -3.72, -4.42, -4.12, -3.21, -3.25, -2.34, 2.4, 1.65, 1.14, 0.54, 0.55, 0.57, 0.57, 1.11, 1.08, 1.08, 0.55, 0.0, 0.0, 0.0, 0.45, -0.0, -0.0, -0.0, -0.0, -0.0, -0.0, -1.6, -1.2, -0.0, 0.89, 1.79, -1.79, -0.0, -1.6, -2.73, -4.09, -4.24, -5.2, -7.2, -6.82, -6.44, -7.07, -6.3, -3.35, 0.0, 0.0, -3.2, -6.28, -7.95, -9.48, -9.17, -9.42, -6.95, -4.29, -2.95, -3.16, -2.21, -2.6, -3.39, -3.9, -4.47, -4.92, -4.47, -4.47, -4.02, -3.95, -4.0, -3.48, -3.35, -3.63, -4.29, -3.47, -1.83, -0.98, -0.98, 0.0, 0.0, 0.83, 0.74, 0.71, 0.77, 1.62, 2.41, 4.68, 5.86, 6.45, 6.21, 6.44, 5.71, 3.53, 1.45, 0.0, -1.2, -0.85, -0.89, -0.73, -1.41, -3.47, -5.06, -4.71, -3.11, -2.41, -2.44, 2.23, 2.12, 1.67, 1.16, 1.19, 1.08, 1.08, 1.57, 1.73, 1.73, 1.19, 1.08, 0.51, -0.65, -2.24, -1.4, -0.99, -0.0, -1.6, -1.8, -2.84, -2.84, -1.6, -0.0, -0.0, -2.24, -0.0, -0.0, -2.53, -4.24, -3.6, -2.68, -3.2, -5.36, -7.44, -7.2, -6.52, -4.95, -4.96, -2.4, -1.83, -3.2, -5.09, -7.44, -8.65, -9.62, -9.92, -9.27, -7.27, -4.16, -2.68, -2.21, -2.6, -3.9, -5.36, -6.26, -6.21, -5.75, -4.92, -4.92, -4.57, -4.15, -4.46, -3.58, -3.48, -3.48, -2.84, -0.95, 0.89, 1.79, 2.21, 2.53, 3.16, 3.48, 3.22, 3.79, 3.21, 3.29, 3.68, 3.68, 5.1, 6.94, 7.73, 7.73, 6.62, 4.6, 1.6, -0.0, 0.87, 0.85, 0.0, -0.76, -1.75, -4.87, -5.6, -3.32, -1.64, -1.6, 2.89, 2.26, 2.14, 1.67, 1.7, 1.7, 1.73, 2.4, 2.4, 1.7, 1.7, 1.73, 1.16, 0.0, -2.68, -2.54, -2.0, -0.45, -0.63, -1.26, -2.97, -2.97, -2.4, -2.4, -1.9, -1.9, -1.9, -0.0, -2.21, -4.02, -3.13, 0.89, 0.89, -2.6, -6.44, -8.0, -6.32, -5.72, -6.24, -4.83, -4.43, -4.22, -4.22, -6.13, -8.34, -9.65, -10.23, -9.65, -7.68, -6.79, -5.82, -6.28, -6.94, -7.55, -8.05, -8.01, -6.98, -5.75, -4.92, -4.66, -4.6, -4.6, -3.93, -3.93, -4.57, -4.47, -2.97, -1.2, 0.85, 2.21, 3.47, 4.02, 4.87, 5.34, 6.07, 6.35, 5.86, 5.52, 4.13, 4.06, 3.53, 5.8, 6.94, 8.49, 8.57, 8.93, 7.98, 6.71, 6.21, 4.87, 2.68, 0.88, 0.0, -2.47, -4.71, -3.83, -2.41, -2.47, 3.35, 2.92, 2.29, 2.32, 2.16, 2.36, 2.36, 2.36, 2.18, 2.18, 1.73, 1.57, 1.13, 0.0, -0.89, -1.34, -1.34, -0.89, -0.89, -0.89, -0.89, -0.89, -0.89, -2.8, -3.2, -2.8, -2.68, -0.6, -1.9, -4.02, -3.2, 0.89, -0.0, -2.4, -5.75, -7.67, -7.33, -7.02, -8.03, -7.41, -5.82, -5.21, -4.6, -5.2, -7.21, -8.4, -10.18, -8.63, -7.6, -8.15, -8.95, -9.9, -9.75, -9.06, -8.94, -8.49, -7.55, -5.73, -4.02, -3.93, -4.11, -4.43, -4.11, -5.21, -6.7, -6.65, -5.29, -2.53, -0.0, 1.98, 3.22, 4.66, 5.31, 6.71, 7.12, 7.06, 7.35, 6.83, 5.78, 4.96, 4.01, 3.96, 5.48, 8.01, 8.57, 10.09, 10.79, 10.8, 9.74, 8.46, 6.21, 4.22, 3.07, 1.84, -0.81, -3.14, -3.95, -3.1, 4.0, 3.37, 2.75, 2.77, 2.8, 2.8, 2.8, 3.04, 2.82, 2.18, 1.73, 1.73, 1.76, 1.2, 0.0, -0.89, -1.34, -1.2, -0.89, -0.89, -0.89, -0.89, -1.79, -2.17, -2.63, -3.07, -2.63, -2.4, -2.4, -3.13, -3.47, -3.13, -3.6, -4.6, -5.09, -6.65, -6.64, -7.42, -8.06, -8.06, -7.44, -6.82, -5.43, -3.93, -4.66, -5.64, -7.06, -7.63, -7.63, -8.63, -9.34, -10.27, -9.74, -8.24, -8.15, -8.15, -8.6, -6.26, -2.21, -1.7, -4.03, -5.24, -5.77, -6.44, -8.05, -9.03, -7.6, -5.51, -2.68, 1.34, 2.4, 3.6, 5.29, 7.15, 8.14, 8.05, 7.68, 6.83, 6.58, 5.86, 5.04, 5.0, 5.02, 4.71, 7.73, 10.01, 11.26, 11.47, 10.79, 9.89, 8.67, 6.79, 5.43, 4.6, 2.95, 0.0, -2.44, -3.17, 4.0, 3.56, 3.4, 3.42, 3.21, 3.45, 3.45, 3.22, 3.04, 2.18, 1.73, 1.73, 1.73, 1.8, 0.71, 0.0, -0.63, -1.2, -0.63, -0.63, -0.89, -1.79, -2.24, -3.13, -3.58, -4.02, -3.98, -3.98, -3.98, -3.53, -3.13, -3.95, -5.2, -4.66, -4.66, -5.81, -6.07, -6.8, -8.0, -8.43, -8.43, -7.42, -6.52, -4.46, -3.13, -1.9, -1.9, -3.6, -4.47, -5.36, -6.58, -6.79, -6.23, -5.01, -5.93, -6.68, -9.48, -6.32, 0.0, 0.0, -2.47, -6.16, -6.71, -7.27, -8.22, -9.62, -9.56, -7.02, -5.06, -0.98, 0.0, 3.39, 5.51, 7.35, 8.42, 8.38, 7.27, 6.14, 5.64, 5.64, 6.53, 6.42, 5.77, 5.1, 5.2, 7.9, 9.89, 10.66, 9.78, 10.0, 9.18, 8.14, 7.2, 6.21, 4.22, 2.0, 0.0, -1.58, 4.42, 4.0, 3.81, 3.4, 3.42, 3.42, 3.68, 3.45, 2.8, 2.82, 2.18, 1.55, 1.73, 1.76, 1.84, 0.57, 0.0, -0.6, -0.6, -0.95, -1.2, -1.79, -2.24, -3.13, -3.58, -4.02, -4.47, -4.02, -4.02, -3.53, -3.53, -3.39, -4.34, -4.47, -4.47, -4.92, -5.7, -5.2, -6.8, -7.03, -7.35, -7.21, -5.7, -4.47, -3.13, -1.4, -0.0, -1.41, -1.27, -1.8, -3.6, -3.2, -2.21, -0.0, -0.0, 1.79, -5.75, -5.86, -1.48, 0.0, -0.8, -4.48, -6.9, -6.67, -6.7, -8.22, -8.53, -7.27, -6.01, -5.37, -1.8, 2.95, 6.01, 7.48, 8.01, 6.97, 5.76, 5.06, 4.83, 5.21, 5.76, 6.64, 6.58, 6.51, 6.62, 5.55, 7.01, 7.82, 7.94, 8.68, 8.67, 7.92, 7.32, 6.32, 4.81, 1.63, 0.0, 0.0, 4.63, 4.44, 4.03, 4.05, 4.05, 4.08, 4.08, 3.84, 3.45, 2.8, 2.36, 1.7, 1.7, 2.18, 1.76, 1.16, 0.0, 0.0, -0.57, -0.95, -1.2, -1.79, -2.68, -3.13, -4.02, -4.47, -4.47, -4.47, -4.47, -4.44, -3.98, -3.87, -3.07, -4.02, -4.02, -3.95, -4.66, -5.09, -5.2, -6.14, -5.75, -4.92, -4.47, -4.02, -3.2, -2.53, -2.53, -2.84, -1.6, -1.6, -1.6, -0.0, -0.0, 1.6, 1.8, 2.73, 2.21, -1.41, -3.47, -1.06, -0.8, -3.45, -6.01, -5.93, -4.09, -4.66, -5.82, -8.73, -8.54, -6.52, -1.83, 2.51, 6.57, 7.25, 6.2, 4.65, 4.13, 3.32, 3.27, 4.26, 5.69, 6.39, 7.41, 8.03, 7.97, 7.18, 4.87, 4.8, 5.52, 6.14, 7.35, 6.68, 6.01, 5.37, 3.9, 2.9, 1.4, 1.4, 5.06, 4.66, 4.69, 4.45, 4.71, 4.46, 4.47, 4.08, 3.21, 3.0, 2.8, 2.36, 2.36, 2.36, 2.4, 1.58, 0.61, 0.0, -0.54, -0.99, -1.2, -1.7, -2.6, -3.58, -4.02, -4.88, -4.89, -5.34, -5.34, -5.33, -4.89, -4.44, -3.53, -4.02, -3.13, -4.02, -4.85, -5.64, -5.36, -4.92, -4.92, -4.02, -4.47, -3.47, -3.82, -3.2, -3.2, -3.2, -2.21, -2.21, -0.0, -0.0, -0.0, 1.9, 1.9, 2.21, 2.84, 3.16, 0.0, -4.36, -3.34, -2.26, -3.82, -2.84, -1.55, -0.0, -0.0, -3.82, -7.6, -5.72, 0.0, 2.23, 5.51, 6.4, 3.95, 1.61, 0.82, 0.85, 1.73, 3.55, 4.95, 7.06, 9.05, 8.94, 9.0, 8.65, 6.42, 4.2, 4.83, 5.64, 6.24, 6.32, 5.94, 4.87, 4.12, 2.9, 2.11, 2.11, 5.29, 5.32, 4.66, 4.69, 4.69, 4.71, 4.46, 4.08, 3.84, 3.21, 3.0, 2.32, 2.32, 2.32, 2.36, 1.73, 1.11, 0.0, 0.0, -0.71, -1.2, -1.2, -2.17, -3.58, -4.47, -4.88, -4.89, -5.7, -6.16, -6.16, -6.16, -5.7, -5.7, -4.8, -4.34, -5.29, -4.92, -5.81, -5.36, -4.92, -4.47, -4.47, -4.92, -4.47, -3.82, -3.2, -3.2, -2.8, -2.21, -2.21, -0.0, -0.0, -0.0, -0.0, 1.9, 1.9, 2.8, 2.84, 1.6, -1.27, -2.4, -1.3, 1.79, -1.6, -1.41, -0.79, -0.0, -0.0, -2.68, -3.48, -2.98, 0.0, 1.7, 1.65, 0.0, -0.79, -1.61, -0.82, 0.81, 2.44, 4.2, 6.7, 8.85, 9.13, 9.06, 8.46, 8.12, 5.76, 5.06, 4.71, 4.83, 5.21, 5.04, 4.5, 4.2, 3.21, 2.82, 2.82, 5.29, 5.06, 5.08, 5.08, 5.09, 5.09, 4.71, 4.46, 4.08, 3.42, 3.21, 2.77, 2.77, 2.32, 2.32, 1.72, 1.08, 0.57, 0.0, -0.71, -0.95, -0.63, -1.2, -4.47, -5.36, -5.81, -4.44, -6.65, -6.98, -6.6, -6.61, -6.94, -6.94, -6.94, -6.94, -6.94, -6.16, -5.78, -5.81, -6.26, -4.92, -4.92, -4.92, -4.47, -4.02, -3.58, -3.2, -3.2, -3.2, -2.21, -2.21, -0.0, -0.0, -0.0, -0.0, 1.6, 2.21, 2.8, 2.8, 2.68, 1.6, 2.21, 2.24, -0.0, -0.98, -0.79, -0.0, -0.0, 0.85, 2.53, 4.02, 4.38, 4.57, 2.4, 0.0, -1.58, -4.04, -3.16, -0.76, 1.6, 6.52, 8.06, 8.99, 8.35, 8.29, 8.18, 8.05, 7.02, 5.76, 4.4, 3.36, 4.07, 4.92, 4.31, 3.25, 2.41, 3.07, 3.07, 5.69, 5.29, 5.32, 5.32, 5.08, 5.34, 5.09, 4.71, 4.05, 3.83, 3.42, 2.96, 2.77, 2.77, 2.29, 1.67, 1.16, 0.55, 0.0, -1.98, -1.9, -0.8, -1.2, -4.02, -5.81, -5.81, -6.26, -5.79, -6.23, -6.6, -6.61, -6.94, -6.97, -7.4, -7.4, -7.4, -7.06, -6.68, -6.23, -5.81, -5.81, -5.33, -4.44, -3.53, -2.63, -3.2, -3.2, -3.2, -2.53, -1.6, -1.6, -1.6, -0.0, -0.0, -0.0, 1.13, 1.6, 2.0, 2.24, 2.68, 2.68, 2.68, -0.0, -0.0, -0.0, -0.0, 0.98, 0.87, 1.98, 4.6, 7.21, 10.14, 11.51, 9.35, 5.09, 1.54, -1.58, -5.54, 0.0, 2.37, 5.41, 7.08, 7.2, 6.47, 6.4, 6.27, 6.44, 6.36, 6.44, 4.96, 4.25, 3.39, 3.16, 3.16, 2.19, 2.37, 2.37, 2.37, 5.69, 5.7, 5.7, 5.72, 5.72, 5.72, 5.09, 4.69, 4.71, 4.05, 3.83, 3.2, 2.75, 2.75, 2.75, 2.29, 1.14, 0.59, 0.0, -1.8, -1.8, -1.2, -1.86, -3.58, -5.36, -5.81, -6.26, -6.26, -6.23, -6.61, -6.61, -7.06, -7.06, -7.07, -7.06, -7.06, -6.61, -6.23, -6.23, -5.78, -5.78, -5.33, -4.88, -3.98, -2.91, -3.82, -3.2, -3.6, -2.53, -1.6, -1.6, -1.6, -0.0, -0.0, -0.0, 0.98, 0.87, -0.0, 1.34, 1.79, 2.24, 2.24, -0.0, -0.0, -0.0, -0.0, 0.88, 0.88, 1.83, 4.89, 7.21, 8.9, 10.28, 8.8, 6.21, 3.88, -2.83, -6.31, -3.16, 0.0, 3.16, 4.81, 4.71, 4.32, 4.87, 4.87, 4.68, 5.62, 6.71, 6.51, 5.76, 3.95, 2.39, 2.89, 2.19, 2.14, 2.1, 2.1, 5.69, 5.95, 5.7, 5.7, 5.72, 5.72, 5.34, 5.09, 4.69, 4.45, 4.05, 3.4, 3.4, 3.18, 2.92, 2.26, 1.76, 1.14, 0.0, -1.13, -2.23, -2.23, -2.91, -3.98, -4.92, -5.81, -5.81, -6.26, -6.23, -6.68, -6.61, -6.61, -6.61, -6.61, -6.61, -6.6, -6.16, -6.16, -5.78, -5.78, -5.24, -4.8, -4.34, -3.87, -3.39, -2.8, -3.6, -2.84, -2.84, -1.8, -1.8, -1.8, -1.27, -0.0, -0.0, -0.0, -0.0, -0.0, -2.24, 1.79, -0.0, -0.0, -0.0, -0.0, -0.0, -0.0, -0.0, 0.88, 0.88, 3.22, 5.36, 4.92, 2.24, 1.0, 3.4, 5.2, 2.91, -3.51, -5.78, -2.22, 0.8, 2.23, 1.65, 2.44, 4.01, 4.13, 5.0, 5.72, 7.19, 7.8, 7.09, 5.7, 3.7, 2.17, 2.21, 2.1, 2.37, 2.37, 5.92, 5.92, 5.69, 5.7, 5.7, 5.72, 5.72, 5.08, 4.69, 4.69, 4.45, 3.81, 3.37, 3.37, 3.37, 2.73, 2.26, 1.1, 0.59, -0.57, -1.6, -2.53, -3.2, -3.98, -4.88, -5.36, -5.81, -6.26, -6.23, -6.68, -6.61, -6.61, -6.61, -6.6, -6.16, -6.16, -5.7, -5.7, -5.24, -5.24, -4.77, -4.19, -4.11, -3.6, -3.07, -2.5, -3.16, -3.16, -3.16, -1.8, -1.8, -1.27, -1.41, -1.19, -0.0, -0.0, -0.0, -0.99, -2.24, 1.34, 0.89, -0.0, -0.0, -0.0, -0.0, 0.82, 0.88, 0.98, 0.98, 2.23, 3.16, -2.68, -2.68, -2.68, 1.14, 4.2, 7.09, 2.89, -3.58, -4.34, -1.46, 0.0, 0.0, 0.77, 2.47, 3.23, 4.81, 6.4, 7.11, 7.36, 8.01, 6.44, 4.6, 2.99, 2.17, 2.82, 2.82, 2.82, 6.33, 6.33, 6.33, 6.08, 6.08, 5.98, 5.72, 5.08, 5.08, 5.08, 4.69, 4.03, 4.03, 3.8, 3.35, 2.89, 2.23, 1.61, 0.57, 0.0, -1.13, -2.53, -3.07, -3.87, -4.44, -4.92, -5.36, -5.81, -6.23, -6.23, -6.23, -6.16, -6.16, -6.16, -5.7, -5.7, -5.26, -5.24, -4.8, -4.6, -4.11, -4.11, -3.35, -3.35, -2.84, -2.84, -3.79, -2.73, -2.73, -2.73, -2.73, -2.48, -2.73, -1.55, -1.3, -1.41, -0.88, -0.88, -2.68, 2.24, 0.89, -0.0, -0.0, -0.0, -0.0, 0.88, 0.88, 1.3, 1.8, 2.98, 3.39, -4.0, -4.02, -3.13, 0.0, 3.35, 7.65, 8.94, 3.35, -2.76, -3.57, -2.11, -0.7, 0.0, 0.81, 2.34, 4.75, 5.46, 5.67, 4.98, 6.56, 5.62, 5.04, 4.14, 3.7, 3.46, 3.68, 3.68, 6.31, 6.31, 6.33, 6.33, 6.08, 6.34, 5.98, 5.72, 5.32, 5.08, 4.66, 4.44, 4.44, 4.0, 4.0, 3.35, 2.86, 2.37, 1.18, 0.0, -0.57, -1.84, -2.79, -3.6, -3.87, -4.44, -4.92, -5.36, -5.81, -5.79, -6.23, -6.23, -5.7, -5.7, -5.7, -5.24, -5.24, -4.77, -4.77, -4.11, -4.11, -3.6, -3.35, -3.35, -2.84, -3.16, -2.84, -2.51, -2.51, -2.23, -2.48, -2.98, -2.73, -2.73, -2.73, -2.4, -2.6, -1.7, -1.8, -0.0, 2.21, -0.0, -0.0, -0.0, -0.0, 0.88, 1.7, 1.99, 2.68, 3.13, 3.13, 1.79, -3.13, -3.13, -1.2, 1.83, 5.59, 8.65, 9.2, 3.72, -1.42, -2.88, -1.43, 0.0, 0.0, 1.58, 3.26, 3.16, 3.17, 2.1, 1.58, 4.87, 5.78, 5.64, 5.04, 4.31, 4.4, 4.4, 6.31, 6.31, 6.58, 6.33, 6.33, 6.34, 6.34, 5.7, 5.46, 5.06, 5.32, 4.66, 4.66, 4.66, 3.97, 3.32, 3.52, 2.33, 1.71, 0.57, 0.0, -1.13, -2.23, -3.14, -3.7, -4.34, -4.88, -4.92, -5.36, -5.81, -5.78, -5.78, -5.7, -5.24, -5.24, -4.8, -4.77, -4.34, -4.11, -3.7, -3.6, -3.6, -2.79, -2.79, -2.79, -3.14, -3.14, -2.23, -2.51, -2.48, -2.86, -2.44, -3.76, -2.6, -2.98, -2.98, -2.98, -2.4, -1.55, -0.0, 1.8, 1.55, 0.88, -0.0, -0.0, 0.81, 1.83, 1.83, 2.98, 2.68, 2.54, 3.6, 1.58, 0.0, -1.58, 1.13, 5.37, 8.57, 9.92, 8.95, 5.06, 0.0, -1.47, -1.46, -0.72, 0.0, 1.54, 1.62, 0.78, 0.71, 0.0, 3.46, 5.62, 6.44, 6.17, 5.76, 4.23, 4.23, 6.31, 6.31, 6.31, 6.58, 6.33, 6.33, 6.34, 6.34, 5.7, 5.7, 5.06, 5.06, 4.63, 4.42, 4.42, 3.97, 3.49, 2.83, 2.21, 1.18, 0.0, -0.57, -1.6, -2.84, -3.35, -3.87, -4.43, -4.44, -4.92, -4.92, -5.33, -4.44, -4.44, -4.3, -3.87, -3.87, -3.82, -3.2, -3.07, -2.5, -2.5, -2.5, -2.21, -2.21, -2.21, -2.21, -2.21, -2.53, -2.23, -1.8, -2.22, -2.4, -2.4, -2.4, -2.76, -2.95, -2.73, -2.73, -1.8, -0.99, -0.0, 0.98, 1.3, -0.0, -0.0, 0.88, 1.66, 2.6, 2.97, 2.68, 2.54, 2.98, 3.35, 0.99, -0.98, 0.88, 5.59, 8.22, 9.56, 9.66, 9.03, 6.06, 1.36, -1.42, -2.94, -0.7, 0.0, 0.0, 0.0, 0.0, 0.0, 0.0, 4.75, 6.33, 6.62, 5.86, 5.0, 5.0, 6.56, 6.56, 6.31, 6.58, 6.58, 6.33, 6.33, 6.34, 6.34, 5.7, 5.7, 5.29, 5.06, 5.06, 4.63, 4.63, 3.94, 3.49, 2.83, 1.71, 0.57, 0.0, -1.11, -2.23, -2.79, -3.6, -3.82, -3.39, -3.53, -3.58, -4.02, -3.98, -3.98, -3.39, -3.39, -3.32, -3.07, -2.68, -2.5, -2.21, -1.61, -1.2, -1.2, -1.24, -1.24, -1.2, -1.2, -1.88, -1.61, -1.13, -1.11, -1.08, -1.88, -2.18, -1.73, -1.83, -1.41, -1.41, -0.98, -0.87, -1.13, -0.0, -0.0, -0.0, 0.88, 1.3, 2.84, 2.68, 2.0, 2.24, 2.68, 3.9, 4.6, 2.95, 0.0, 0.0, 4.01, 6.56, 7.9, 8.76, 8.93, 7.72, 6.51, 2.83, -0.7, -2.08, -2.93, -1.62, 0.0, 0.0, 0.0, 0.0, 3.25, 5.2, 6.44, 6.44, 6.44, 6.44, 6.96, 6.96, 6.7, 6.7, 6.97, 6.58, 6.33, 6.33, 6.08, 6.34, 5.7, 5.29, 5.29, 5.29, 5.29, 4.6, 4.4, 3.94, 3.49, 2.33, 1.73, 0.53, -0.55, -1.27, -2.23, -1.61, -2.5, -2.8, -2.63, -3.13, -3.13, -3.07, -3.07, -2.91, -2.91, -2.8, -2.5, -2.5, -1.9, -1.61, -1.2, -0.65, -0.65, -0.99, -0.99, -0.65, -0.65, -0.61, -0.59, -0.59, -0.57, -0.63, -1.08, -1.73, -1.73, -1.23, -1.3, -1.19, -0.98, -0.98, -0.98, -0.98, -0.87, -0.0, 0.79, 2.6, 2.53, 1.79, 0.0, 0.0, 2.24, 4.02, 5.75, 6.4, 4.83, 2.35, 1.62, 2.41, 4.93, 6.77, 8.01, 7.27, 7.44, 6.95, 4.94, 0.0, -3.47, -3.9, -2.39, 0.0, 0.0, 0.0, 0.0, 2.85, 5.02, 5.9, 6.27, 6.27, 6.96, 6.96, 6.96, 6.7, 6.7, 6.97, 6.97, 6.33, 6.33, 6.33, 6.08, 5.69, 5.26, 5.69, 5.04, 5.04, 4.6, 4.12, 3.94, 3.32, 2.37, 1.12, 1.14, 0.0, 0.0, -0.61, -1.2, -1.58, -1.86, -2.24, -2.24, -2.17, -2.17, -1.86, -1.86, -1.9, -1.9, -1.9, -1.9, -1.2, -1.2, -0.53, -0.0, -0.0, -0.61, -1.13, -0.87, -1.13, -1.13, -1.27, -1.27, -1.11, -1.23, -1.76, -1.76, -1.76, -1.11, -1.27, -0.88, -1.8, -2.0, -1.8, -0.0, -0.0, -0.0, -0.0, 0.96, -0.0, 0.0, 0.0, -0.0, 2.6, 5.75, 8.49, 9.33, 8.05, 4.81, 2.6, 2.39, 4.65, 6.43, 6.71, 6.97, 7.09, 6.56, 5.09, 0.74, -1.48, -2.15, -1.39, -0.71, -0.8, -0.72, 1.59, 3.52, 5.02, 5.72, 5.72, 6.96, 6.96, 6.96, 6.96, 6.7, 6.7, 6.97, 6.97, 6.33, 6.33, 6.33, 5.69, 5.69, 5.69, 5.69, 5.69, 5.04, 4.6, 4.12, 3.94, 3.01, 3.56, 2.29, 1.16, 0.57, 0.0, 0.0, -0.57, -0.6, -0.89, -1.34, -1.2, -1.6, -1.26, -1.26, -1.58, -1.24, -1.24, -1.24, -1.2, -0.65, -0.65, -0.0, -0.0, -0.0, -0.87, -0.98, -1.16, -1.33, -1.33, -1.33, -1.13, -1.13, -1.27, -1.27, -1.13, -1.13, -0.59, -1.13, -2.0, -1.8, -0.99, -0.0, -0.0, -0.98, -0.96, -0.0, -0.0, 1.79, 1.79, -0.0, 1.2, 4.0, 7.89, 9.83, 9.06, 7.55, 4.92, 3.35, 3.25, 5.02, 5.8, 6.33, 6.69, 6.59, 6.15, 5.21, 3.64, 1.44, 0.0, -0.72, -1.4, -1.44, 0.0, 2.17, 3.57, 4.3, 4.3, 6.96, 6.96, 6.96, 6.96, 6.96, 6.7, 6.7, 6.97, 6.97, 6.97, 6.33, 6.33, 5.69, 5.69, 5.92, 5.69, 5.69, 5.04, 4.6, 4.6, 4.63, 4.0, 3.4, 2.32, 1.73, 1.27, 0.0, 0.0, 0.0, 0.0, 0.45, -0.0, -0.0, -0.0, -0.6, -0.8, -0.57, -0.57, -0.71, -0.71, -0.54, -0.54, -0.0, -0.0, -0.0, -0.61, -0.65, -0.65, -0.65, -0.65, -0.65, -0.65, -0.65, -0.65, -0.65, -1.16, -0.61, -0.61, -0.7, -1.16, -1.98, -0.99, -0.0, -0.87, -1.8, -1.8, -0.98, -0.0, -0.0, 1.9, 0.99, 1.2, 3.13, 6.71, 8.45, 6.71, 3.39, 2.24, 3.13, 3.79, 3.7, 4.23, 5.0, 5.06, 5.72, 6.28, 6.15, 5.37, 4.81, 2.88, 1.4, 0.0, -0.71, -0.72, 0.73, 2.11, 2.84, 2.84, 6.96, 6.96, 6.96, 6.96, 6.96, 6.96, 6.96, 6.7, 6.97, 6.97, 6.97, 6.33, 6.33, 5.69, 6.33, 6.33, 5.69, 5.69, 5.69, 5.04, 5.06, 4.66, 4.03, 3.42, 2.82, 2.22, 1.13, 1.2, 0.8, 0.95, 0.45, 0.45, -0.0, -0.0, -0.0, -0.0, -0.0, -0.0, -0.0, -0.0, -0.0, -0.0, -0.0, -0.0, -0.0, -0.54, -0.54, -0.54, -0.54, -0.71, -0.71, -0.71, -0.54, -0.54, -0.54, -0.54, -0.0, -0.0, -0.0, -0.61, -1.2, -0.0, -0.0, -0.0, -0.98, -1.8, -2.23, -1.98, -2.21, -0.0, 1.74, 1.9, 2.24, 5.09, 8.01, 6.26, 1.79, 0.89, 2.54, 4.02, 4.4, 3.9, 3.91, 4.37, 4.75, 5.37, 5.93, 5.49, 5.49, 4.43, 3.63, 2.98, 1.41, 0.0, 0.0, 0.0, 1.42, 1.42, 6.96, 6.96, 6.96, 6.96, 6.96, 6.96, 6.96, 6.96, 6.96, 6.97, 6.97, 6.33, 6.33, 6.33, 6.33, 6.33, 6.33, 6.33, 5.69, 5.7, 5.29, 5.32, 5.09, 4.46, 3.85, 3.49, 2.48, 2.21, 1.9, 1.7, 1.34, 1.34, 1.2, 0.95, 0.6, 0.6, -0.0, -0.0, -0.0, -0.0, -0.0, -0.0, -0.0, -0.0, -0.0, -0.0, -0.0, -0.57, -0.57, -0.57, -0.57, -0.57, -0.0, -0.0, -0.0, -0.0, -0.0, -0.0, -0.0, -0.61, -1.27, -0.0, -0.0, -0.0, -0.87, -1.98, -1.98, -1.98, -2.53, -0.0, 0.99, 2.53, 4.02, 5.82, 9.24, 9.36, 7.11, 5.75, 5.86, 6.22, 6.26, 5.86, 5.69, 5.09, 5.43, 5.21, 5.75, 5.75, 5.43, 3.9, 4.16, 5.06, 4.43, 2.98, 1.45, 0.0, 1.43, 1.43, 7.22, 7.22, 6.96, 6.96, 6.96, 6.96, 6.96, 6.96, 6.96, 6.96, 6.97, 6.97, 6.33, 6.33, 6.33, 6.71, 6.98, 6.61, 6.34, 5.7, 5.7, 5.72, 5.72, 5.1, 4.75, 4.12, 3.49, 3.43, 3.07, 2.6, 2.24, 2.24, 2.12, 2.12, 1.86, 1.26, 1.26, 0.57, 0.57, 0.57, 0.71, 0.57, 0.57, 0.57, -0.0, -0.0, -0.0, -0.0, -0.0, -0.0, -0.8, -0.57, -0.0, -0.0, -0.0, -0.0, -0.0, -0.0, -0.0, -0.59, -1.16, -1.41, -0.0, -0.0, -0.0, -1.6, -2.21, -2.21, -2.21, -1.2, -0.0, 1.6, 5.81, 8.01, 9.97, 10.7, 10.7, 10.45, 9.54, 8.9, 7.56, 6.79, 6.54, 6.54, 6.07, 5.6, 6.1, 6.44, 5.77, 4.16, 4.03, 4.83, 5.43, 5.05, 4.46, 3.64, 1.42, 1.42, 7.22, 7.22, 6.96, 6.96, 7.33, 7.33, 7.33, 6.96, 6.96, 6.96, 6.97, 6.97, 6.33, 6.71, 6.33, 6.98, 6.98, 6.98, 6.7, 6.34, 6.35, 6.08, 5.72, 5.72, 5.69, 5.06, 4.71, 4.37, 3.88, 3.39, 3.09, 3.13, 2.63, 2.6, 2.4, 2.4, 1.86, 1.58, 1.24, 1.24, 1.24, 1.24, 0.57, 0.8, 0.8, 0.6, -0.0, -0.0, -0.0, -0.0, -0.0, -0.8, -0.57, -0.0, -0.0, -0.0, -0.0, -0.0, -0.0, -0.0, -0.61, -1.16, -1.27, -1.13, -0.0, -1.4, -1.2, -2.21, -2.21, -1.2, -0.0, 1.2, 5.64, 8.45, 9.39, 9.36, 9.39, 9.39, 9.39, 8.01, 6.55, 5.34, 5.43, 5.69, 6.07, 6.64, 7.03, 6.82, 5.82, 5.15, 5.06, 5.69, 5.43, 5.6, 5.16, 5.34, 2.99, 2.99, 7.22, 7.22, 7.22, 7.6, 7.6, 7.33, 7.33, 7.33, 6.96, 6.96, 6.97, 6.97, 6.97, 6.98, 6.98, 6.98, 6.98, 6.98, 6.98, 6.98, 6.35, 6.35, 6.34, 6.32, 6.28, 5.65, 5.29, 4.84, 4.8, 4.19, 3.98, 3.58, 3.58, 3.09, 3.07, 2.91, 2.4, 2.15, 1.9, 1.9, 1.58, 1.24, 1.24, 1.0, 0.8, 0.95, 0.95, 0.95, 0.95, -0.0, -0.0, -0.0, -0.0, -0.0, -0.0, -0.0, -0.0, -0.0, -0.0, -0.0, -0.0, -0.0, -0.0, -0.0, -0.0, -0.0, -1.2, -1.13, -1.13, -0.99, -0.0, 1.2, 4.66, 7.2, 7.42, 6.26, 5.75, 7.12, 7.35, 6.0, 4.4, 3.58, 3.79, 4.43, 5.43, 6.08, 6.08, 6.07, 5.82, 5.43, 5.82, 6.44, 6.08, 5.43, 5.2, 5.34, 6.28, 5.46, 7.22, 7.22, 7.6, 7.6, 7.6, 7.6, 7.33, 7.33, 7.33, 7.24, 6.97, 6.97, 6.97, 6.98, 6.98, 6.98, 6.7, 7.3, 7.3, 6.98, 6.97, 6.67, 6.64, 6.32, 6.28, 6.23, 5.86, 5.75, 5.31, 5.09, 4.88, 4.47, 4.02, 3.58, 3.53, 3.53, 2.91, 2.68, 2.5, 2.15, 1.9, 1.86, 1.24, 1.9, 1.58, 1.26, 1.26, 1.26, 1.6, 1.2, 0.95, -0.0, -0.0, -0.0, -0.0, -0.0, -0.0, -0.0, -0.0, -0.0, -0.0, -0.0, -0.0, -0.0, -0.0, -0.0, -0.0, -0.87, -0.98, -0.0, -0.0, -0.0, 3.6, 4.19, 4.81, 3.2, 2.4, 3.58, 4.19, 3.84, 2.41, 2.41, 3.07, 3.72, 3.72, 4.81, 5.09, 5.43, 5.75, 5.75, 6.28, 6.94, 7.03, 6.4, 5.43, 5.43, 6.0, 6.28, 7.22, 7.22, 7.6, 7.6, 7.6, 7.6, 7.33, 7.61, 7.61, 6.97, 6.97, 6.97, 7.61, 7.32, 7.32, 6.98, 6.98, 6.98, 7.59, 7.27, 7.27, 6.95, 7.25, 6.92, 6.87, 6.44, 6.41, 6.28, 5.81, 5.57, 5.24, 4.89, 4.47, 4.47, 4.02, 3.54, 3.39, 3.39, 2.91, 2.91, 2.4, 1.86, 1.86, 1.58, 2.21, 1.86, 1.58, 1.86, 1.86, 1.86, 1.86, 1.24, 0.71, 0.71, 0.71, 0.71, 0.71, -0.0, -0.0, 0.61, 0.61, -0.0, -0.0, -0.0, -0.0, -0.0, -0.0, -0.98, -0.88, -0.0, -0.0, 1.2, -0.0, 2.0, 1.55, -0.99, -2.54, -1.79, 0.0, 0.0, 0.8, 1.9, 2.86, 3.83, 4.22, 4.8, 5.34, 6.02, 5.75, 6.28, 6.7, 7.63, 7.6, 7.42, 6.44, 5.82, 5.46, 6.0, 7.22, 7.22, 7.6, 7.6, 7.6, 7.6, 7.61, 7.61, 7.61, 7.33, 6.97, 6.98, 7.32, 7.32, 7.32, 7.6, 7.3, 7.3, 7.27, 7.55, 7.55, 7.51, 7.51, 7.44, 7.35, 7.07, 6.95, 6.4, 6.3, 6.04, 5.7, 5.34, 4.89, 4.92, 4.47, 3.98, 3.98, 3.53, 3.39, 2.91, 2.4, 2.4, 1.86, 2.23, 1.9, 2.98, 1.9, 1.9, 1.9, 2.5, 2.5, 1.88, 1.88, 1.2, 1.24, 1.24, 0.71, 0.65, 0.65, 0.61, 0.61, 0.61, -0.0, -0.0, -0.0, -0.0, -0.0, -1.27, -0.98, -0.0, -0.0, -0.0, -0.0, -0.0, -0.0, -4.0, -5.29, -4.38, -3.13, -1.79, -0.0, 3.2, 4.87, 5.81, 6.26, 6.66, 7.45, 7.42, 7.21, 7.21, 7.71, 8.3, 8.55, 8.55, 7.44, 6.44, 5.82, 5.82, 7.6, 7.6, 7.6, 7.6, 7.6, 8.24, 7.95, 7.61, 7.33, 7.61, 6.98, 6.98, 7.32, 7.32, 7.6, 7.6, 7.3, 7.59, 7.59, 7.55, 7.23, 7.51, 7.44, 7.44, 7.35, 7.23, 7.08, 6.8, 6.6, 6.3, 6.04, 5.7, 5.34, 5.36, 4.92, 4.47, 4.47, 3.98, 3.53, 3.07, 2.63, 2.6, 2.4, 2.4, 2.4, 2.4, 2.15, 1.9, 1.9, 2.5, 2.21, 1.88, 1.88, 1.61, 1.9, 1.24, 1.24, 0.65, 0.65, 0.65, 0.61, 0.61, 0.53, -0.0, -0.0, -0.0, -0.0, -1.27, -0.98, -0.98, -0.98, -0.87, -0.0, -0.0, -0.0, -2.53, -3.9, -3.9, -1.9, 0.98, 3.64, 6.35, 7.73, 8.38, 8.46, 8.94, 8.36, 8.63, 7.89, 7.89, 7.89, 8.55, 9.2, 9.2, 7.03, 6.4, 6.4, 6.4, 7.6, 7.6, 7.33, 7.6, 8.24, 8.24, 7.95, 7.95, 7.61, 7.61, 7.32, 7.32, 7.32, 7.6, 7.6, 7.9, 8.19, 7.59, 7.59, 7.55, 7.51, 7.51, 7.44, 7.72, 7.35, 7.23, 7.08, 7.31, 7.01, 6.79, 6.47, 6.16, 5.78, 5.81, 5.36, 4.92, 4.47, 4.02, 3.58, 3.13, 3.07, 2.63, 2.6, 2.4, 2.4, 2.4, 2.4, 2.4, 2.23, 1.9, 1.9, 1.9, 1.9, 1.9, 1.9, 1.49, 1.2, 1.2, 0.65, 0.65, 0.53, 0.61, 0.61, -0.0, -0.0, -0.0, -0.0, -1.41, -0.98, -0.98, -1.8, -1.8, -1.98, -2.21, -0.0, 1.0, 2.4, 2.98, 3.79, 5.69, 7.59, 9.19, 10.27, 10.05, 9.36, 9.39, 9.26, 8.63, 8.0, 7.6, 7.6, 8.55, 9.08, 8.82, 7.89, 7.35, 7.35, 7.35, 7.33, 7.33, 7.33, 7.61, 8.24, 8.24, 7.95, 8.24, 7.61, 7.61, 7.32, 7.32, 7.6, 7.6, 7.6, 8.19, 8.19, 7.86, 8.15, 7.55, 7.51, 7.51, 7.44, 7.72, 7.61, 7.23, 7.48, 7.31, 7.09, 6.79, 6.94, 6.6, 6.23, 5.79, 5.81, 5.36, 4.92, 4.47, 4.02, 3.58, 3.13, 3.07, 3.07, 3.07, 2.63, 2.6, 2.6, 2.4, 2.4, 1.86, 2.23, 1.86, 1.86, 1.86, 1.58, 1.9, 1.9, 1.9, 1.49, 1.2, 0.65, 0.61, 1.16, 0.65, -0.0, -0.0, -0.0, -0.99, -1.8, -1.8, -2.73, -1.8, -2.84, -2.21, -1.58, -0.0, 2.98, 5.2, 6.44, 7.35, 8.6, 10.15, 10.79, 10.18, 9.83, 9.36, 8.82, 8.63, 8.3, 7.42, 7.81, 7.89, 8.3, 8.14, 8.14, 7.89, 7.89, 7.89, 7.33, 7.33, 7.33, 7.61, 7.95, 7.95, 8.24, 8.24, 7.93, 7.61, 7.32, 7.6, 7.6, 7.6, 7.6, 8.19, 7.86, 8.15, 8.15, 8.15, 7.73, 8.0, 7.64, 7.72, 7.61, 7.87, 7.71, 7.31, 7.51, 7.26, 6.94, 7.06, 6.61, 6.23, 5.78, 5.34, 4.89, 4.44, 4.02, 3.58, 3.58, 3.58, 3.09, 3.07, 3.07, 3.07, 2.63, 2.6, 2.6, 2.6, 2.17, 1.86, 1.86, 1.86, 1.86, 1.9, 1.9, 1.9, 1.9, 1.49, 1.2, 1.2, 1.2, 0.65, 0.65, -0.0, -0.0, -0.0, -1.98, -2.68, -2.84, -1.98, -2.21, -1.9, -1.58, -0.0, 2.4, 4.57, 5.82, 6.11, 7.35, 9.6, 10.45, 9.81, 9.39, 9.36, 8.84, 8.67, 8.3, 7.81, 6.64, 6.7, 7.63, 8.14, 7.89, 8.3, 8.3, 8.3, 7.33, 7.33, 7.61, 7.61, 7.95, 7.95, 8.24, 8.24, 7.93, 7.93, 7.6, 7.6, 7.6, 7.6, 7.59, 7.86, 7.86, 8.15, 8.15, 8.44, 8.37, 8.0, 8.27, 8.15, 7.76, 8.0, 7.81, 8.0, 7.51, 7.69, 7.4, 6.94, 6.61, 6.6, 6.16, 5.78, 5.33, 4.88, 4.47, 4.02, 3.58, 3.58, 3.58, 3.53, 3.09, 3.07, 3.07, 3.07, 2.63, 2.6, 2.6, 2.6, 2.6, 2.4, 1.86, 1.86, 2.23, 1.9, 1.9, 1.49, 1.49, 1.2, 1.2, 1.16, 0.53, -0.0, -0.0, -0.0, -1.8, -1.98, -2.53, -2.21, -1.9, -1.9, -1.0, -0.0, -0.0, 2.98, 4.19, 4.54, 5.15, 8.3, 9.54, 9.58, 9.81, 9.39, 9.11, 8.48, 8.3, 4.8, 4.57, 5.59, 6.94, 7.63, 7.47, 7.89, 7.89, 7.89, 7.33, 7.33, 7.61, 7.95, 7.95, 8.24, 8.24, 8.24, 7.93, 8.22, 7.9, 7.6, 7.6, 7.6, 7.59, 7.86, 7.86, 8.15, 8.15, 8.65, 8.29, 8.43, 8.43, 8.28, 8.15, 8.0, 8.22, 7.81, 8.0, 7.69, 7.26, 7.4, 6.94, 6.47, 6.16, 5.7, 5.33, 4.89, 4.47, 4.47, 4.02, 4.02, 3.58, 3.58, 3.58, 3.53, 3.07, 3.13, 3.13, 2.63, 2.6, 2.6, 2.6, 2.6, 2.17, 1.86, 1.86, 2.23, 1.9, 1.9, 1.49, 1.49, 1.2, 1.16, 0.61, -0.0, -0.0, -0.0, -0.0, -1.9, -2.21, -1.2, -1.2, -1.2, -1.2, -0.0, -0.0, 0.99, 2.68, 2.68, 2.95, 5.21, 7.2, 7.71, 8.49, 8.38, 7.98, 7.2, 5.34, 4.24, 4.15, 4.57, 5.51, 6.16, 6.28, 6.28, 6.28, 6.28, 7.61, 7.61, 7.61, 7.95, 7.95, 8.24, 8.53, 8.24, 8.22, 8.22, 8.22, 7.9, 7.9, 7.9, 7.59, 7.86, 7.86, 8.15, 8.15, 8.08, 8.08, 8.43, 8.43, 8.68, 8.28, 8.0, 8.22, 7.81, 8.0, 7.51, 7.69, 7.21, 6.94, 6.47, 6.16, 5.7, 5.78, 5.33, 4.92, 4.92, 4.47, 4.02, 4.02, 3.58, 3.58, 3.58, 3.58, 3.58, 3.13, 3.07, 2.63, 2.63, 2.63, 2.6, 2.6, 2.17, 1.86, 1.86, 1.86, 1.58, 1.24, 1.24, 1.2, 0.65, 0.53, -0.0, -0.0, -0.0, -0.0, -1.58, -2.8, -2.21, -1.4, -1.4, -1.2, -1.2, -0.0, -0.0, 0.87, 0.98, 1.13, 2.68, 3.79, 5.29, 5.86, 6.07, 5.09, 4.19, 4.4, 5.34, 5.34, 4.6, 4.57, 4.57, 5.09, 4.66, 4.66, 4.66, 7.61, 7.61, 7.61, 7.95, 8.24, 8.24, 8.53, 8.53, 8.5, 8.22, 8.22, 7.9, 7.9, 8.19, 8.19, 7.86, 8.15, 8.15, 8.15, 8.08, 8.08, 8.18, 8.43, 8.68, 8.15, 8.4, 8.0, 7.81, 7.81, 7.51, 7.51, 7.21, 6.79, 6.51, 6.6, 6.16, 5.78, 5.78, 5.36, 4.92, 4.92, 4.47, 4.02, 4.02, 4.02, 3.58, 3.58, 3.58, 3.13, 3.13, 3.13, 2.68, 2.63, 2.6, 2.6, 2.6, 2.12, 1.86, 1.86, 1.86, 1.24, 1.24, 1.24, 0.54, 0.65, -0.0, -0.0, 1.0, -0.0, -0.0, -2.4, -2.54, -2.4, -2.21, -1.9, -1.2, -1.2, -0.0, -0.0, -0.0, -0.0, 1.13, 2.21, 4.02, 4.54, 3.11, 0.85, 0.0, 2.53, 5.09, 6.08, 4.46, 3.22, 2.98, 3.47, 3.47, 3.47, 3.47, 7.61, 7.61, 7.95, 7.95, 8.24, 8.24, 8.53, 8.82, 8.5, 8.5, 8.22, 8.22, 8.19, 8.19, 8.19, 7.86, 8.15, 8.15, 8.15, 8.08, 8.08, 8.37, 8.27, 8.27, 8.15, 8.15, 8.0, 7.6, 7.71, 7.51, 7.51, 7.21, 6.79, 6.94, 6.6, 6.16, 6.23, 5.78, 5.78, 5.36, 4.92, 4.47, 4.47, 4.47, 4.02, 4.02, 3.58, 3.58, 3.13, 3.13, 3.13, 3.13, 2.68, 2.6, 2.6, 2.6, 2.17, 2.12, 1.86, 1.86, 1.58, 1.58, 1.24, 0.57, 0.71, 0.71, 1.2, -0.0, -0.0, -0.0, -1.58, -2.0, -2.68, -2.68, -2.4, -2.4, -1.58, -0.0, -0.99, -1.13, -0.0, -0.0, 1.58, 3.39, 1.6, 0.0, -1.26, -0.8, 1.26, 3.79, 5.72, 5.06, 2.68, 1.58, 2.4, 2.4, 2.4, 2.4, 7.95, 7.95, 7.95, 7.95, 8.24, 8.24, 8.53, 8.82, 8.82, 8.5, 8.5, 8.78, 8.19, 8.19, 8.19, 7.86, 8.15, 8.15, 8.15, 8.08, 8.08, 8.37, 8.27, 8.27, 8.15, 8.15, 8.0, 7.48, 7.71, 7.51, 7.51, 7.26, 6.94, 6.94, 6.61, 6.6, 6.23, 6.23, 5.78, 5.34, 5.36, 4.92, 4.47, 4.47, 4.02, 4.02, 3.58, 3.58, 3.58, 3.13, 3.13, 3.13, 3.13, 2.68, 2.68, 2.6, 2.17, 2.12, 2.12, 2.12, 1.86, 1.26, 1.26, 0.8, 0.8, 0.8, 1.2, -0.0, -0.0, -0.0, -0.0, -1.58, -2.4, -2.0, -1.26, 1.34, 1.34, -0.0, -0.99, -1.13, -0.0, -0.0, 1.58, 3.48, 0.73, -1.34, -1.49, -0.0, 1.34, 2.84, 5.09, 5.43, 2.84, 0.0, 1.26, 1.26, 1.26, 1.26, 7.95, 7.95, 7.95, 8.24, 8.24, 8.24, 8.53, 8.53, 8.82, 8.5, 8.5, 8.78, 8.78, 8.45, 8.19, 8.15, 8.15, 8.15, 8.15, 8.08, 8.08, 8.37, 8.27, 7.9, 8.15, 7.76, 8.0, 7.6, 7.71, 7.51, 7.51, 7.26, 7.4, 6.94, 7.06, 6.61, 6.6, 6.23, 5.78, 5.78, 5.33, 4.89, 4.92, 4.47, 4.47, 4.02, 4.02, 3.58, 3.58, 3.58, 3.13, 3.13, 3.13, 3.13, 2.68, 2.68, 2.68, 2.24, 2.12, 2.12, 1.7, 1.6, 1.6, 0.95, 0.95, 0.6, 0.6, -0.0, -0.0, -0.0, -0.0, -1.9, -2.4, -2.24, 1.34, 1.34, 1.26, -0.0, -1.98, -0.99, -0.0, -0.0, 2.4, 2.68, 0.0, -2.41, -1.66, -0.0, 1.26, 2.6, 4.46, 4.46, 2.4, 0.89, 0.89, 0.89, 0.89, 0.89, 7.95, 7.95, 7.95, 8.24, 8.24, 8.24, 8.53, 8.53, 8.82, 8.82, 8.5, 8.78, 8.78, 8.45, 8.45, 8.49, 8.15, 8.15, 8.44, 8.08, 8.08, 8.37, 8.0, 7.9, 8.15, 7.76, 8.0, 7.81, 7.81, 7.93, 7.51, 7.69, 7.26, 6.94, 6.94, 6.61, 6.6, 6.16, 6.23, 5.78, 5.34, 5.33, 4.88, 4.44, 4.47, 4.02, 4.02, 4.02, 3.58, 3.58, 3.58, 3.58, 3.13, 3.13, 3.13, 2.68, 2.68, 2.68, 2.24, 2.24, 2.12, 1.7, 1.6, 1.2, 0.95, 0.63, 0.63, 0.45, 1.34, -0.0, -1.58, -2.24, -2.68, -1.79, 1.34, -0.0, -0.0, -0.99, -1.98, -2.21, -1.58, 0.89, 0.0, 0.0, -0.98, -2.21, -1.8, -0.87, -0.0, 1.6, 3.16, 2.21, 0.89, 0.89, 0.45, 0.89, 0.89, 0.89, 7.95, 7.95, 8.24, 8.24, 8.24, 8.53, 8.53, 8.82, 8.82, 8.82, 8.5, 8.78, 8.78, 8.45, 8.73, 8.73, 8.38, 8.38, 8.65, 8.08, 8.37, 8.37, 8.0, 7.9, 8.15, 8.4, 8.0, 8.22, 7.81, 8.0, 7.51, 7.69, 7.26, 7.26, 6.94, 6.94, 6.6, 6.16, 6.16, 5.7, 5.34, 5.33, 4.89, 4.88, 4.44, 4.47, 4.02, 4.02, 4.02, 3.58, 3.58, 3.58, 3.58, 3.58, 3.13, 3.13, 2.68, 2.68, 2.68, 2.68, 2.24, 2.24, 1.7, 1.6, 1.34, 0.89, 0.89, 0.89, 0.45, -1.34, -2.24, -2.68, -2.68, -1.79, 0.89, 1.34, -1.2, -1.98, -2.98, -2.4, -2.24, 0.0, -1.13, -0.96, -0.96, -1.34, -1.74, -2.07, -1.6, -0.0, 0.0, 0.0, -0.89, 0.89, 0.89, 0.89, 0.89, 0.89, 7.95, 7.95, 8.24, 8.24, 8.53, 8.53, 8.53, 8.82, 8.82, 8.82, 8.5, 8.78, 8.78, 8.78, 8.73, 8.73, 8.38, 8.65, 8.65, 8.29, 8.55, 8.55, 8.27, 8.27, 8.15, 8.15, 8.0, 8.0, 8.22, 7.81, 8.0, 7.51, 7.69, 7.26, 6.79, 6.94, 6.51, 6.47, 6.16, 5.7, 5.7, 5.33, 4.89, 4.88, 4.44, 4.44, 4.47, 4.47, 4.02, 4.02, 4.02, 3.58, 3.58, 3.58, 3.58, 3.13, 3.13, 3.13, 2.68, 2.68, 2.68, 2.68, 2.24, 2.24, 1.79, 1.34, 0.89, 0.89, 0.45, 0.89, -1.79, -2.68, -2.0, -1.34, 0.89, -1.79, -2.4, -1.98, -2.21, -2.4, -1.34, 0.0, -0.87, -1.83, -0.88, 0.0, -2.0, -3.07, -2.79, -1.74, -2.24, -2.68, -1.79, 1.34, 1.34, -0.95, -0.95, -0.95, 8.24, 8.24, 8.24, 8.53, 8.53, 8.53, 8.53, 8.82, 8.82, 8.82, 8.5, 8.78, 8.78, 8.78, 8.73, 8.73, 8.73, 8.65, 8.65, 8.65, 8.55, 8.55, 8.82, 8.43, 8.68, 8.15, 8.4, 8.0, 8.22, 7.81, 7.81, 7.51, 7.51, 7.26, 6.79, 6.94, 6.51, 6.47, 6.16, 5.7, 5.7, 5.24, 5.24, 4.89, 4.88, 4.44, 4.44, 4.44, 4.47, 4.02, 4.02, 4.02, 3.58, 3.58, 3.58, 3.58, 3.58, 3.58, 3.13, 3.13, 2.68, 2.68, 2.68, 2.24, 2.24, 1.79, 1.34, 1.34, 0.89, 0.89, 0.89, -1.79, -1.26, 1.34, 0.89, -1.79, -2.0, -2.0, -1.2, -1.26, 0.89, 0.0, 0.0, -0.98, -0.96, 0.0, -1.26, -3.2, -3.16, -2.53, -2.23, -3.13, -2.54, -2.0, -1.58, -1.58, -1.58, -1.58, 8.54, 8.54, 8.53, 8.53, 8.53, 8.53, 8.82, 8.82, 8.82, 8.82, 8.78, 8.78, 8.78, 8.78, 8.73, 8.73, 8.73, 8.65, 8.65, 8.65, 8.55, 8.55, 8.55, 8.43, 8.68, 8.28, 8.15, 8.0, 8.0, 7.81, 7.81, 7.51, 7.51, 7.26, 7.21, 6.79, 6.47, 6.47, 6.04, 5.7, 5.7, 5.7, 5.24, 5.24, 4.88, 4.88, 4.88, 4.88, 4.44, 4.44, 4.43, 4.02, 4.02, 4.02, 4.02, 3.58, 3.58, 3.58, 3.58, 3.13, 3.13, 2.68, 2.68, 2.68, 2.68, 2.24, 1.79, 1.34, 1.34, 1.34, 0.89, 1.34, 1.34, 1.34, 0.89, -1.34, -1.79, -2.24, -0.0, -0.0, 0.89, 1.34, 0.0, 0.0, 0.0, 0.0, 0.0, -1.6, -2.54, -2.6, -2.6, -3.13, -3.04, -2.97, -2.4, -2.0, -2.0, -2.0, 8.85, 8.85, 8.53, 8.53, 8.53, 8.53, 8.82, 8.82, 8.82, 8.82, 8.78, 8.78, 8.78, 8.78, 8.73, 8.73, 8.73, 8.65, 8.65, 8.65, 8.55, 8.55, 8.55, 8.82, 8.43, 8.28, 8.15, 8.4, 8.0, 8.22, 7.71, 7.31, 7.51, 7.01, 6.79, 6.79, 6.47, 6.47, 6.04, 5.99, 5.7, 5.7, 5.7, 5.24, 5.24, 4.89, 4.89, 4.88, 4.88, 4.44, 4.44, 4.02, 4.02, 4.02, 4.02, 4.02, 4.02, 4.02, 3.58, 3.58, 3.13, 3.13, 3.13, 2.68, 2.68, 2.68, 2.24, 1.79, 1.34, 1.79, 1.79, 1.26, 0.0, 1.79, 0.89, -1.79, -1.79, -1.79, -1.26, -0.0, 0.89, 0.0, 0.0, 0.0, 0.0, 0.0, 0.0, 0.0, 0.0, -1.6, -2.24, -2.68, -3.13, -2.54, -2.0, -1.6, -1.6, -1.6, 8.85, 8.85, 8.53, 8.53, 8.53, 8.53, 8.82, 8.82, 8.82, 8.82, 8.78, 8.78, 8.78, 9.08, 8.73, 8.73, 8.73, 8.65, 8.65, 8.65, 8.55, 8.55, 8.55, 8.82, 8.43, 8.28, 8.15, 8.4, 8.0, 8.0, 7.71, 7.31, 7.51, 7.01, 6.79, 6.79, 6.3, 6.47, 6.04, 5.99, 5.99, 5.7, 5.7, 5.26, 5.24, 5.24, 5.24, 4.89, 4.88, 4.88, 4.44, 4.44, 3.98, 3.98, 4.02, 4.02, 4.02, 4.02, 4.02, 3.58, 3.58, 3.58, 3.13, 3.13, 2.68, 2.68, 2.68, 2.24, 1.79, 1.79, 2.24, 2.12, 1.26, 2.24, 1.34, 0.0, -1.26, -1.79, -1.79, -1.34, 1.34, 0.0, 1.2, 1.98, 1.8, 1.08, 0.96, 1.83, 2.0, 0.0, 0.0, -1.0, -1.26, -1.26, 0.0, 1.34, 1.34, 1.34, 8.85, 8.85, 8.53, 8.53, 8.53, 8.53, 8.82, 8.82, 8.82, 8.82, 8.78, 8.78, 8.78, 9.08, 8.73, 8.73, 8.73, 8.65, 8.65, 8.65, 8.55, 8.55, 8.55, 8.82, 8.43, 8.28, 8.15, 8.4, 8.0, 8.0, 7.71, 7.31, 7.51, 7.01, 6.79, 6.79, 6.3, 6.47, 6.04, 5.99, 5.99, 5.7, 5.7, 5.26, 5.24, 5.24, 5.24, 4.89, 4.88, 4.88, 4.44, 4.44, 3.98, 3.98, 4.02, 4.02, 4.02, 4.02, 4.02, 3.58, 3.58, 3.58, 3.13, 3.13, 2.68, 2.68, 2.68, 2.24, 1.79, 1.79, 2.24, 2.12, 1.26, 2.24, 1.34, 0.0, -1.34, -1.79, -1.79, -1.34, 1.34, 0.0, 2.21, 2.84, 3.58, 3.93, 2.95, 2.95, 3.48, 2.68, 1.8, 1.98, 2.21, 2.98, 3.9, 4.47, 4.47, 4.47]}, {"header": {"dx": 0.06612293990616946, "dy": 0.0552356325346848, "nx": 98, "ny": 59, "la1": 35.046912555036876, "la2": 31.78801023549047, "lo1": -121.43107172385933, "lo2": -114.95102361305473, "refTime": "2026041715", "parameterCategory": 1, "parameterNumber": 3}, "data": [-3.87, -3.6, -3.6, -3.88, -3.35, -3.6, -2.68, -2.5, -2.5, -2.68, -3.07, -2.5, -1.74, -0.99, -0.79, -1.72, -1.73, -1.84, -1.32, -1.32, -0.0, -0.0, 0.82, 0.81, 1.66, 1.8, 0.87, 0.99, -0.0, -0.0, -0.0, -1.34, -1.34, -2.0, -1.58, -1.0, 0.0, 0.0, -1.34, -2.24, -0.79, -0.0, 1.14, -0.0, -0.0, -0.89, -1.84, -2.6, -3.63, -3.48, -2.84, -1.98, -1.98, -1.98, -2.53, -2.84, -1.98, -1.9, -1.58, -1.79, -1.34, 0.0, 0.0, 0.0, -1.26, -2.68, -3.13, -3.13, -3.13, -3.58, -3.39, -2.6, -2.53, -2.84, -2.84, -2.68, -3.79, -4.11, -5.15, -5.21, -5.21, -4.11, -4.43, -3.63, -3.35, -2.3, -0.98, 0.0, -1.83, -5.21, -7.42, -8.05, -9.36, -11.06, -12.3, -12.74, -12.74, -12.74, -4.3, -3.7, -3.7, -4.11, -3.6, -3.2, -2.68, -2.5, -2.5, -3.07, -3.2, -3.22, -1.74, -1.0, -0.0, -0.0, -0.0, -0.0, -0.0, -0.0, -0.0, -0.0, -0.0, 1.41, 1.83, 1.8, 0.87, -0.0, -0.0, -0.99, -1.2, -2.0, -2.68, -2.68, -1.9, -0.0, 1.66, 1.98, -0.0, -0.0, -0.0, 1.16, 1.16, -0.0, -1.58, -2.51, -3.11, -3.47, -3.22, -3.35, -3.48, -3.48, -3.93, -3.58, -3.16, -3.58, -2.84, -2.6, -2.4, -2.24, -1.79, -1.34, -1.26, -1.26, -1.58, -2.0, -2.24, -2.24, -2.24, -2.4, -2.21, -1.98, -2.41, -2.68, -3.16, -3.48, -4.89, -4.11, -5.15, -5.21, -5.21, -4.11, -4.43, -3.63, -3.35, -2.3, -0.98, 0.0, -1.83, -5.21, -7.42, -8.05, -9.36, -11.06, -12.3, -12.74, -12.74, -12.74, -4.44, -4.3, -3.7, -3.7, -3.7, -3.2, -2.68, -2.5, -2.91, -3.39, -3.87, -3.35, -2.53, -1.9, -0.95, -0.0, 0.88, 1.7, 1.83, 1.55, 0.79, -0.0, -0.0, -0.0, -0.0, -0.0, -0.0, -0.0, -0.0, -0.0, -1.9, -3.39, -3.6, -1.3, 0.83, 3.52, 4.83, 5.06, 3.33, 1.67, 2.25, 0.73, -0.0, -1.67, -3.15, -3.91, -4.03, -4.16, -4.29, -5.15, -5.15, -4.81, -5.21, -4.54, -3.84, -3.48, -3.58, -2.84, -2.98, -2.54, -2.24, -1.79, -1.79, -2.24, -2.68, -2.68, -2.0, -1.58, -1.58, 0.0, -1.2, -2.23, -2.68, -3.79, -4.54, -5.21, -6.8, -5.82, -5.72, -6.8, -6.7, -6.4, -5.82, -5.49, -4.11, -2.3, -0.79, -0.96, -1.84, -4.95, -6.44, -5.59, -4.47, -5.73, -8.14, -9.75, -10.43, -11.37, -4.92, -4.44, -3.87, -3.87, -3.87, -3.39, -2.91, -2.91, -3.53, -3.98, -3.98, -3.82, -2.98, -2.6, -1.2, 0.99, 2.68, 2.95, 3.48, 3.6, 2.21, 1.4, -0.0, -0.0, -0.0, -0.0, -0.0, -0.0, -0.0, -0.0, -1.34, -2.4, -0.79, 1.25, 3.52, 4.0, 4.71, 5.69, 4.16, 2.47, 0.79, -0.0, -0.8, -2.44, -3.32, -4.0, -4.71, -5.59, -5.69, -5.77, -5.72, -5.82, -5.82, -4.84, -4.6, -3.93, -3.58, -2.84, -2.98, -2.21, -2.0, -1.79, -1.79, -3.13, -3.13, -3.13, -2.68, -1.26, 0.0, 0.0, 0.0, -1.98, -2.95, -3.35, -4.43, -5.82, -7.35, -8.0, -8.0, -8.3, -8.19, -8.56, -8.3, -7.35, -5.6, -3.58, -2.0, -1.84, -4.03, -6.32, -6.44, -5.09, -2.24, -2.4, -5.2, -7.76, -8.95, -10.43, -5.36, -4.92, -4.43, -3.87, -3.87, -3.39, -3.53, -3.09, -3.58, -4.02, -4.02, -2.63, -1.58, -1.2, -0.0, 1.9, 3.6, 4.57, 4.22, 4.15, 4.02, 3.58, 3.13, 2.68, 1.58, 2.21, 2.21, -0.0, 1.9, 2.0, 1.79, 0.85, 0.83, 0.85, -0.0, -0.0, 1.32, 2.8, 1.66, -0.0, -1.62, -0.0, -0.0, -0.83, -1.73, -3.09, -4.26, -5.24, -5.69, -6.11, -5.77, -5.82, -5.21, -4.84, -4.19, -3.48, -2.68, -2.41, -1.98, -1.2, -1.58, -1.58, -2.21, -3.6, -3.9, -3.58, -3.13, -2.68, -2.21, -2.21, -3.13, -2.98, -2.3, -2.6, -3.55, -5.06, -6.44, -7.42, -8.72, -8.14, -8.48, -9.54, -9.54, -8.56, -6.94, -6.02, -5.21, -5.69, -7.35, -8.06, -7.03, -5.51, -3.13, -2.21, -4.54, -7.42, -8.55, -10.18, -5.79, -4.92, -4.47, -3.98, -3.98, -3.53, -3.53, -3.58, -3.58, -3.98, -3.58, -2.12, -0.0, -0.0, -0.0, 2.4, 3.9, 4.38, 4.15, 2.98, 2.4, 2.68, 3.58, 3.82, 4.02, 4.02, 3.58, 3.6, 3.16, 4.09, 3.22, 2.4, 0.76, -0.78, -2.17, -1.52, -1.67, -0.96, -1.58, -2.53, -3.88, -3.34, -0.81, -0.79, -0.82, -1.84, -2.4, -3.35, -4.11, -4.43, -4.43, -4.43, -4.54, -4.19, -3.35, -2.53, -1.8, -0.98, -0.98, -0.85, -0.0, -2.21, -3.58, -4.22, -4.6, -4.15, -3.9, -4.57, -5.82, -6.8, -7.42, -7.15, -6.02, -5.15, -5.24, -5.59, -6.39, -7.2, -8.3, -8.82, -9.24, -10.25, -10.93, -10.16, -9.24, -9.24, -9.54, -9.6, -9.65, -8.95, -8.14, -7.1, -4.47, -3.6, -5.82, -8.4, -9.24, -10.18, -6.16, -5.34, -4.92, -4.02, -4.02, -3.58, -3.58, -3.58, -3.98, -3.98, -3.13, -1.79, 0.0, 0.0, 1.34, 2.4, 2.97, 3.13, 2.4, 1.26, -0.0, 0.0, 1.34, 2.24, 3.58, 3.58, 3.58, 3.2, 4.24, 3.58, 4.11, 2.47, 0.84, -0.81, -2.28, -3.11, -4.2, -4.29, -4.47, -3.47, -5.01, -5.86, -6.67, -5.98, -5.31, -3.47, -2.53, -1.98, -2.53, -3.79, -4.11, -3.79, -3.79, -2.53, -1.83, -0.88, -0.79, -0.0, -0.0, -0.0, -0.0, -1.98, -4.54, -5.21, -5.82, -5.75, -5.51, -6.02, -7.89, -9.75, -10.45, -11.06, -10.73, -10.6, -9.9, -9.03, -7.44, -6.82, -7.82, -9.6, -10.0, -11.37, -12.27, -12.94, -12.86, -12.33, -12.09, -10.95, -10.18, -9.54, -8.91, -7.15, -5.51, -4.54, -6.44, -8.95, -9.75, -10.25, -6.94, -5.7, -5.33, -4.47, -4.02, -4.02, -4.02, -3.98, -3.98, -3.98, -3.58, -2.68, -1.79, 0.0, 1.26, 2.24, 2.68, 2.68, 1.79, 0.0, 0.0, 0.0, 0.0, 0.0, 0.0, 0.0, -0.0, 2.68, 3.2, 4.66, 3.79, 2.6, -0.0, -1.14, -3.15, -4.5, -5.28, -6.01, -6.58, -6.07, -4.47, -4.75, -9.17, -10.02, -9.08, -7.9, -4.83, -2.76, -2.53, -3.16, -3.16, -2.68, -2.0, -1.66, -0.88, -0.79, -0.0, -0.0, -0.0, -0.0, -0.0, -2.41, -4.54, -5.43, -5.82, -6.21, -6.16, -6.45, -7.21, -8.14, -9.24, -10.25, -11.62, -11.62, -11.15, -10.05, -9.06, -7.76, -8.43, -9.67, -10.15, -10.94, -11.8, -14.03, -15.14, -15.13, -12.18, -8.56, -5.29, -6.26, -7.6, -6.55, -5.58, -6.18, -7.42, -8.82, -9.75, -10.93, -7.21, -6.04, -5.7, -4.89, -4.44, -3.98, -3.98, -3.87, -4.34, -4.34, -4.44, -4.02, -4.02, -2.68, 0.0, 2.68, 3.58, 3.58, 2.68, 2.68, 3.13, 3.2, 2.4, 1.79, 0.0, 0.0, -0.0, 2.24, 3.2, 4.09, 2.73, 1.41, -1.3, -3.6, -4.26, -4.03, -4.71, -7.56, -7.81, -7.15, -4.47, -1.6, -5.03, -9.08, -9.48, -9.17, -8.24, -6.95, -5.15, -3.93, -3.16, -2.21, -1.74, -1.13, -0.98, -0.0, -0.0, -0.0, -0.0, -0.0, -0.79, -2.0, -3.48, -4.19, -4.54, -5.15, -5.21, -4.57, -3.9, -3.9, -4.92, -5.36, -6.65, -6.66, -7.12, -8.46, -9.7, -10.45, -10.15, -9.52, -9.67, -10.35, -10.73, -12.13, -13.4, -13.78, -9.83, -2.4, 2.54, -0.0, -4.41, -5.64, -6.25, -8.43, -8.63, -9.33, -10.45, -11.36, -7.26, -6.36, -5.57, -5.24, -4.77, -4.34, -4.34, -4.19, -4.6, -4.6, -4.77, -4.34, -3.09, -2.6, -0.0, 2.8, 2.97, 3.13, 3.2, 3.6, 2.84, 2.84, 3.2, 3.13, 2.24, -0.0, 2.24, 3.13, 2.53, 1.41, 1.8, -0.0, -1.6, -4.02, -4.96, -3.6, -3.91, -5.77, -7.44, -7.21, -4.57, -1.6, -1.7, -4.96, -7.08, -8.01, -7.63, -7.73, -7.27, -5.82, -3.58, -2.21, -1.74, -0.98, -0.0, -0.0, 0.78, 0.82, -0.0, -0.0, -1.83, -1.66, -2.98, -2.68, -3.48, -3.48, -2.84, -0.95, 0.0, 0.0, -2.21, -2.53, -3.16, -3.48, -4.84, -6.07, -8.82, -10.68, -11.03, -11.03, -10.94, -10.41, -9.84, -9.84, -9.56, -9.2, -5.59, 1.34, 3.47, 2.54, -1.34, -5.31, -7.85, -10.55, -11.2, -11.61, -11.51, -11.96, -7.51, -6.79, -5.88, -5.57, -5.09, -5.09, -4.6, -4.8, -4.8, -5.09, -5.09, -4.6, -2.91, -1.34, -0.0, 0.85, 1.0, -0.0, 0.63, 1.26, 0.99, 0.99, 1.2, 1.2, 1.9, 1.9, 1.9, 2.68, 2.21, -0.0, -0.0, 0.0, 0.0, -1.74, -4.03, -5.72, -6.32, -6.87, -7.02, -6.44, -4.43, -2.53, -2.53, -3.68, -5.21, -5.63, -5.51, -5.63, -6.14, -5.1, -4.16, -2.35, -1.73, -0.84, -0.0, 0.8, 1.55, 0.82, -0.0, -1.55, -2.76, -2.76, -2.95, -2.95, -1.83, -0.0, 0.99, 2.4, 2.54, 2.21, 0.87, 0.0, -0.7, -2.29, -3.79, -5.64, -7.33, -8.67, -9.9, -11.37, -12.01, -11.6, -10.41, -9.2, -7.85, -5.95, -2.9, 0.0, 0.78, 0.7, 0.0, -4.38, -6.71, -9.06, -12.56, -13.78, -13.65, -13.18, -7.81, -7.01, -6.3, -5.81, -5.4, -5.31, -5.31, -5.31, -4.9, -4.9, -4.6, -4.19, -3.39, -1.34, -0.0, -0.0, -0.0, -0.0, -0.0, -0.0, -0.0, -0.0, -0.0, 1.4, 1.6, 1.4, -0.0, 1.2, 1.9, -0.0, -1.6, 0.0, 1.34, 1.2, -0.82, -4.6, -5.86, -6.24, -6.42, -5.76, -4.16, -3.47, -2.76, -2.6, -2.4, -3.06, -3.39, -3.7, -3.8, -4.66, -4.07, -4.13, -3.25, -2.47, -0.0, -0.0, 0.84, 0.96, -0.0, -2.95, -4.11, -4.43, -4.11, -3.47, -2.51, -0.83, 0.88, 2.53, 3.13, 2.98, 2.41, 1.55, 0.76, 0.0, -2.67, -5.49, -6.53, -7.68, -7.95, -8.49, -10.43, -11.87, -11.75, -9.62, -7.85, -5.77, -4.32, -2.88, -1.39, -0.77, -0.78, -2.53, -3.84, -5.51, -8.9, -12.58, -14.21, -13.96, -8.0, -7.31, -6.6, -6.1, -5.6, -5.6, -5.6, -5.47, -5.08, -4.9, -4.6, -4.6, -4.11, -2.4, -0.45, -0.0, -0.0, -0.6, -0.0, -0.0, -0.0, -0.0, -0.0, 0.54, 0.53, 0.61, 0.53, 1.2, 1.2, -0.0, -0.87, -0.0, 1.8, 2.76, 1.7, -0.83, -3.69, -4.12, -5.64, -5.64, -4.96, -4.26, -3.11, -2.95, -1.55, -1.41, -1.18, -2.54, -2.54, -3.7, -4.31, -4.4, -4.5, -4.5, -4.66, -4.66, -2.46, -0.0, -2.21, -5.09, -6.44, -6.11, -4.95, -4.83, -4.83, -4.92, -3.8, -1.84, -0.0, 0.0, 1.2, 1.8, 0.88, 0.0, -2.44, -4.83, -6.83, -7.68, -7.31, -7.33, -7.92, -10.0, -11.47, -12.56, -9.27, -7.51, -6.43, -5.02, -4.32, -2.82, -2.17, -2.26, -3.11, -2.76, -3.93, -7.15, -11.36, -13.49, -8.0, -7.71, -6.8, -6.28, -5.89, -5.75, -5.75, -5.37, -5.47, -4.9, -4.6, -4.6, -4.6, -3.6, -2.12, -0.45, -0.63, -0.6, -0.63, -0.63, -0.0, -0.0, -0.0, -0.0, -0.0, -0.0, 0.57, 0.57, 0.57, 0.59, -0.0, 0.79, 1.3, 1.55, 1.55, -0.0, -1.52, -3.4, -4.0, -5.06, -5.06, -4.12, -3.91, -2.98, -0.0, 1.9, 1.9, 1.8, -0.0, -0.0, -1.32, -2.26, -2.49, -3.76, -4.75, -5.94, -5.92, -6.32, -6.71, -7.15, -9.06, -9.86, -8.94, -8.49, -8.22, -8.01, -6.62, -6.24, -5.06, -3.9, -2.24, -1.13, -1.84, -3.27, -5.9, -6.7, -7.27, -7.68, -8.06, -8.06, -7.35, -8.03, -10.09, -10.94, -11.88, -10.28, -9.06, -7.38, -6.29, -5.0, -3.53, -3.7, -3.6, -3.55, -2.53, -4.0, -7.6, -11.06, -8.28, -8.0, -7.08, -6.8, -6.28, -6.28, -6.13, -5.75, -5.6, -5.08, -4.9, -4.66, -4.6, -4.11, -3.07, -1.7, -0.89, -1.2, -1.2, -0.95, -0.6, -0.0, -0.0, -0.0, -0.0, -0.0, -0.0, -0.0, -0.0, 0.59, 0.59, 1.13, 1.08, -0.0, -0.0, -0.0, -1.14, -2.6, -3.4, -3.91, -3.27, -2.4, -1.14, -0.0, -0.0, 2.8, 4.02, 4.24, 3.82, 3.6, 1.8, 1.6, 2.21, 2.68, 2.24, 0.0, -3.45, -9.52, -11.08, -11.62, -11.15, -11.21, -11.5, -11.12, -10.04, -8.22, -8.53, -8.49, -7.21, -5.37, -3.6, -3.93, -6.01, -8.31, -9.62, -9.3, -9.05, -8.43, -8.05, -7.81, -7.41, -6.64, -7.31, -7.96, -9.56, -12.7, -10.9, -8.6, -7.22, -6.31, -5.52, -5.04, -5.13, -4.22, -4.01, -6.51, -9.39, -9.39, -8.68, -7.76, -7.48, -6.95, -6.95, -6.41, -6.41, -6.03, -5.75, -5.6, -5.31, -5.09, -5.09, -4.9, -4.11, -2.91, -2.24, -1.79, -1.7, -0.95, -0.6, -0.0, -0.0, -0.0, -0.0, -0.0, -0.0, -0.0, -0.0, 0.55, 0.57, 1.11, 0.61, -0.0, -0.0, -0.79, -1.55, -1.7, -2.6, -1.23, -0.82, -0.0, -0.0, -0.0, 1.6, 2.53, 2.53, 2.84, 3.2, 3.2, 3.2, 3.13, 3.13, 3.2, 3.6, 4.09, 2.21, -5.64, -11.56, -13.82, -11.15, -9.21, -7.21, -4.75, -2.73, -1.55, -3.33, -6.24, -4.88, -3.91, -4.57, -6.7, -9.04, -11.28, -12.39, -11.62, -9.9, -8.3, -7.35, -6.82, -5.69, -5.59, -5.76, -6.42, -7.18, -7.97, -10.55, -9.6, -8.67, -7.68, -6.53, -5.94, -6.01, -5.37, -5.46, -6.54, -8.38, -8.38, -8.43, -8.15, -7.61, -7.23, -7.07, -6.7, -6.15, -6.41, -5.89, -6.0, -5.6, -5.31, -5.31, -5.31, -4.8, -3.7, -3.07, -2.68, -2.17, -1.49, -0.6, -0.57, -0.65, -0.0, -0.0, 0.61, 0.54, 0.53, 0.53, 0.59, 0.54, 0.55, 0.59, -0.0, -0.0, -0.0, -0.81, -1.41, -0.0, -0.0, -0.0, -0.0, -0.0, 0.87, 1.27, 1.6, 1.6, 1.6, 2.21, 2.21, 2.68, 2.68, 2.68, 1.9, 1.9, 2.21, 2.84, 3.16, -2.68, -9.8, -11.13, -6.79, -1.27, 2.84, 4.66, 4.02, 3.58, -1.27, -3.8, -4.29, -6.26, -8.19, -10.23, -12.79, -14.21, -12.86, -10.7, -8.45, -6.94, -6.21, -5.77, -5.49, -5.76, -6.71, -7.36, -7.08, -8.03, -8.4, -8.05, -8.06, -7.02, -6.32, -6.68, -6.96, -7.42, -7.98, -9.15, -9.15, -8.82, -8.27, -8.15, -7.61, -7.61, -7.07, -6.7, -6.41, -6.03, -5.89, -6.0, -5.81, -5.81, -5.81, -5.31, -4.6, -3.87, -3.58, -2.68, -2.12, -0.6, -0.6, -0.54, -0.0, -0.0, 0.61, 0.54, 1.14, 1.12, 1.12, 1.12, 1.14, 1.14, 1.07, 1.08, 0.88, -0.0, -0.0, -0.0, -0.0, -0.0, -0.0, -0.0, -0.0, 1.27, 1.6, 1.6, 1.4, 2.21, 2.21, 2.68, 2.68, 2.68, 2.68, 1.9, 1.9, 1.4, 2.84, 3.2, -3.82, -7.21, -5.2, 0.0, 3.2, 4.24, 3.95, 4.47, 4.47, -0.0, -3.48, -4.46, -4.92, -5.09, -7.42, -12.52, -14.28, -12.86, -10.7, -8.9, -8.14, -8.4, -8.38, -8.85, -9.83, -9.89, -9.23, -8.93, -7.41, -8.43, -8.63, -8.05, -7.81, -7.92, -8.24, -8.4, -8.82, -9.89, -9.89, -8.82, -8.43, -7.9, -7.9, -7.35, -7.35, -7.07, -6.7, -6.41, -6.28, -5.89, -6.1, -6.1, -5.81, -5.81, -6.02, -4.34, -3.98, -3.13, -2.12, -0.95, -0.63, -0.6, -0.0, -0.0, -0.0, 0.55, 0.83, 1.55, 1.2, 1.1, 1.73, 1.73, 1.73, 1.73, 1.73, 1.12, 0.58, -0.0, -0.0, -0.0, -0.0, -0.0, -0.0, -0.0, -0.0, 1.6, 1.6, 1.6, 2.21, 2.21, 3.13, 3.13, 3.13, 3.13, 3.2, 2.21, 1.4, 1.4, 0.0, -3.2, -2.21, 0.0, 2.68, 3.9, 3.95, 4.02, 3.13, 2.54, 2.53, 0.0, 0.88, 1.83, 1.2, -6.26, -14.22, -16.96, -15.78, -12.94, -11.96, -12.23, -12.89, -13.89, -13.23, -13.27, -12.27, -11.28, -9.82, -9.05, -8.8, -9.24, -8.95, -9.03, -9.34, -9.75, -10.45, -10.75, -10.75, -9.1, -8.82, -8.27, -8.27, -7.9, -7.72, -7.35, -7.07, -6.95, -6.56, -6.28, -6.51, -6.1, -6.1, -6.3, -5.57, -5.24, -4.44, -4.47, -2.98, -1.9, -1.6, -0.6, -0.0, -0.0, -0.0, -0.0, 0.53, 0.57, 1.2, 1.1, 1.73, 1.61, 1.71, 1.71, 1.71, 1.18, 0.61, 0.57, -0.0, -0.0, 0.59, 0.55, 0.59, 0.53, 1.6, 1.6, 1.6, 2.53, 3.2, 3.2, 3.2, 3.58, 3.58, 3.13, 3.39, 3.2, 1.0, 0.0, 0.0, 0.0, 0.0, 2.24, 3.58, 4.47, 4.47, 3.9, 3.47, 2.98, 2.76, 2.4, 1.69, 1.64, 0.85, -1.7, -11.52, -17.36, -19.8, -16.09, -15.01, -14.68, -14.95, -14.39, -13.75, -12.79, -11.85, -10.73, -9.19, -8.58, -8.49, -9.36, -10.18, -10.25, -10.25, -10.96, -11.84, -11.84, -11.84, -9.1, -8.55, -8.55, -8.0, -8.0, -7.44, -7.35, -7.61, -7.07, -6.95, -6.56, -6.4, -6.6, -6.6, -6.6, -6.3, -5.7, -5.33, -4.02, -3.6, -3.6, -2.4, -1.24, -0.0, -0.0, -0.0, -0.0, -0.0, 0.57, 1.1, 1.1, 1.18, 1.18, 1.09, 1.18, 1.18, 1.1, 0.57, 0.57, 0.58, 0.58, 0.59, 0.61, 0.57, 1.16, 1.27, 1.6, 1.8, 2.53, 3.2, 3.2, 3.2, 4.02, 4.02, 4.47, 3.9, 3.47, 1.79, 0.0, 0.0, 0.0, 0.0, 2.24, 4.02, 4.47, 4.92, 4.38, 4.38, 4.57, 3.91, 2.4, 0.81, 0.0, -1.6, -3.55, -8.55, -17.66, -20.51, -18.96, -17.43, -15.78, -14.42, -12.56, -10.79, -10.55, -10.55, -10.15, -9.14, -8.94, -7.96, -9.05, -9.49, -9.54, -9.4, -10.96, -11.42, -11.89, -11.89, -9.1, -8.93, -8.55, -8.55, -8.0, -8.0, -7.72, -7.35, -7.61, -7.23, -6.95, -6.8, -6.8, -6.9, -7.01, -6.79, -6.47, -5.7, -4.47, -3.39, -3.35, -2.79, -1.16, -0.57, -0.0, -0.0, -0.0, -0.0, 0.57, 0.56, 1.1, 1.1, 1.1, 1.1, 1.1, 1.2, 1.12, 1.12, 0.58, 0.58, 1.16, 1.07, 1.08, 1.11, 1.13, 1.4, 1.8, 2.84, 2.84, 3.6, 3.6, 3.6, 3.82, 4.47, 4.92, 4.92, 4.47, 2.24, -0.0, 0.0, 1.34, 1.79, 3.13, 4.47, 5.36, 5.36, 4.92, 4.38, 4.38, 4.84, 4.02, 0.0, 0.0, -2.0, -6.8, -10.4, -13.09, -16.16, -18.8, -17.74, -16.07, -14.13, -12.41, -11.36, -10.43, -9.9, -10.0, -10.63, -10.79, -9.21, -9.21, -8.55, -8.14, -8.67, -9.58, -10.52, -11.84, -11.84, -9.48, -9.48, -9.1, -8.55, -8.55, -8.0, -8.0, -7.9, -7.61, -7.61, -7.23, -7.08, -7.31, -7.31, -7.31, -7.09, -6.79, -6.61, -5.33, -3.98, -3.2, -2.53, -1.6, -0.57, -0.61, -0.0, -0.0, -0.0, 0.57, 0.61, 1.1, 1.1, 1.1, 1.2, 1.12, 1.12, 1.14, 1.14, 1.16, 1.16, 1.19, 1.57, 1.76, 1.8, 1.84, 1.88, 3.16, 3.16, 3.16, 3.6, 3.6, 3.82, 4.24, 4.77, 5.36, 5.36, 5.36, 2.97, -0.0, 0.0, 0.0, 2.68, 4.02, 5.36, 5.81, 5.75, 5.29, 3.9, 3.9, 3.35, 3.16, -0.0, -0.0, -0.0, -5.7, -8.4, -9.21, -9.4, -14.31, -17.35, -16.03, -15.2, -14.3, -13.84, -13.18, -12.09, -12.04, -12.79, -13.43, -12.27, -10.19, -8.58, -7.67, -7.47, -8.67, -9.89, -11.28, -11.28, -9.21, -9.21, -9.21, -8.84, -8.29, -8.37, -8.0, -7.9, -7.9, -7.9, -7.61, -7.48, -7.48, -7.6, -7.81, -7.51, -7.26, -6.97, -6.23, -4.47, -3.39, -2.53, -1.84, -1.11, -0.55, -0.0, -0.0, -0.0, 0.57, 0.57, 0.57, 1.12, 1.12, 1.12, 1.14, 1.14, 1.05, 1.16, 1.07, 1.73, 1.76, 1.76, 2.23, 2.23, 2.84, 2.84, 3.79, 4.09, 4.09, 4.09, 4.09, 3.72, 4.09, 4.66, 5.2, 5.64, 5.29, 4.38, -0.0, 0.0, 0.0, 2.68, 4.47, 5.36, 5.36, 5.29, 5.29, 5.2, 3.6, 1.98, 1.13, -2.0, -0.0, -0.0, -4.02, -7.81, -8.75, -6.71, -7.81, -11.75, -15.69, -15.5, -16.08, -16.54, -16.97, -16.37, -15.84, -15.61, -14.58, -12.45, -10.66, -9.14, -7.92, -6.9, -8.14, -9.68, -11.03, -11.03, -9.76, -9.76, -9.21, -9.21, -8.84, -8.65, -8.37, -8.0, -8.27, -7.9, -8.15, -7.76, -7.76, -8.0, -8.0, -7.81, -8.0, -7.69, -7.06, -5.36, -3.98, -3.07, -2.23, -1.8, -1.11, -0.55, -0.0, -0.0, -0.0, 0.53, 0.57, 0.57, 1.14, 1.14, 1.14, 1.16, 1.16, 1.19, 1.19, 1.76, 1.76, 1.8, 2.23, 2.23, 2.84, 3.16, 2.84, 3.14, 3.14, 3.35, 3.72, 4.46, 4.09, 4.09, 4.09, 4.8, 5.2, 5.09, 3.6, 2.24, 2.21, 3.13, 4.47, 5.36, 5.36, 5.29, 5.09, 4.98, 3.58, 0.0, 0.0, 0.0, -0.0, -0.0, -2.4, -4.57, -6.98, -7.08, -4.6, -5.58, -10.63, -15.83, -17.82, -18.33, -17.88, -17.36, -17.13, -15.78, -13.49, -11.89, -11.06, -9.05, -7.95, -8.06, -7.92, -9.34, -10.27, -10.27, -9.76, -9.76, -9.58, -9.21, -9.21, -8.65, -8.65, -8.55, -8.18, -8.43, -8.27, -8.15, -8.15, -8.15, -8.51, -8.3, -8.22, -8.17, -7.4, -6.23, -4.47, -3.39, -2.79, -2.51, -1.58, -1.08, -0.61, -0.0, -0.0, -0.0, 0.58, 0.58, 1.14, 1.16, 1.16, 1.07, 1.19, 1.08, 1.76, 1.58, 1.8, 1.8, 2.23, 2.23, 2.23, 2.51, 2.51, 2.79, 3.14, 3.72, 4.0, 4.27, 5.01, 5.2, 4.46, 4.46, 4.46, 4.8, 4.66, 3.58, 3.6, 4.66, 4.38, 4.92, 4.92, 4.85, 4.57, 4.57, 1.98, 0.0, -0.85, -1.8, -1.58, -1.79, -1.58, -3.39, -5.37, -7.85, -6.87, -4.07, -5.06, -10.73, -16.92, -18.27, -16.52, -15.65, -14.67, -13.76, -12.49, -12.05, -12.52, -9.68, -9.14, -8.58, -8.23, -9.05, -9.86, -9.86, -9.76, -9.76, -9.76, -9.58, -9.21, -9.21, -8.65, -8.65, -8.55, -8.55, -8.43, -8.43, -8.68, -8.28, -8.28, -8.51, -8.72, -8.48, -7.74, -7.06, -5.36, -3.98, -3.2, -2.84, -2.23, -1.11, -0.63, -0.55, -0.0, -0.0, 0.59, 0.55, 0.55, 1.23, 1.11, 1.11, 1.27, 1.6, 1.84, 1.88, 1.88, 1.88, 2.21, 2.21, 2.21, 2.21, 2.21, 2.53, 2.79, 3.6, 3.88, 4.8, 4.8, 4.8, 4.6, 3.93, 4.09, 4.09, 3.6, 2.97, 3.58, 3.9, 5.2, 4.47, 4.92, 4.38, 4.15, 1.74, 0.99, 0.0, -0.85, -1.98, -2.23, -2.97, -3.9, -4.38, -6.39, -8.22, -8.76, -7.24, -4.92, -5.3, -10.19, -15.58, -17.64, -16.08, -14.3, -12.52, -12.07, -12.07, -12.96, -13.41, -11.09, -10.28, -9.56, -9.52, -10.0, -10.0, -10.13, -10.13, -9.76, -9.58, -9.58, -9.21, -9.21, -8.65, -8.65, -8.55, -8.55, -8.82, -8.43, -8.43, -8.68, -8.68, -9.01, -8.72, -8.48, -7.4, -6.23, -4.47, -3.87, -2.79, -2.23, -1.8, -1.27, -1.13, -0.59, -0.0, -0.0, 0.57, 0.57, 1.13, 1.13, 1.33, 1.84, 1.61, 1.88, 2.21, 2.15, 2.4, 2.4, 1.86, 1.86, 2.4, 2.4, 2.5, 2.68, 3.39, 3.87, 4.34, 5.02, 4.9, 4.6, 4.57, 4.24, 4.24, 3.9, 3.47, 3.39, 3.58, 4.02, 4.47, 4.38, 5.2, 2.84, 0.0, -1.0, 0.0, 0.0, -0.98, -2.76, -3.93, -6.26, -8.49, -10.43, -10.66, -10.28, -9.56, -8.12, -5.34, -4.73, -8.48, -13.39, -15.96, -15.37, -13.76, -12.52, -12.52, -13.41, -14.3, -13.01, -11.88, -10.73, -10.73, -10.73, -10.73, -9.86, -9.86, -9.5, -9.5, -9.3, -9.58, -9.21, -9.21, -8.84, -8.65, -8.55, -8.82, -8.82, -8.82, -8.82, -9.2, -8.8, -9.01, -8.72, -8.17, -6.94, -5.34, -4.44, -3.82, -2.79, -2.68, -1.88, -1.4, -0.53, -0.0, -0.0, 0.61, 0.61, 1.16, 1.16, 1.4, 1.88, 1.88, 1.9, 2.15, 2.4, 2.6, 2.6, 2.97, 2.97, 2.6, 2.6, 3.07, 3.53, 3.53, 3.98, 4.43, 4.34, 4.6, 4.6, 4.3, 5.2, 4.77, 3.9, 3.9, 3.9, 3.9, 3.47, 3.58, 3.95, 5.2, 4.22, 0.0, -2.68, -1.34, 0.0, 0.0, -0.82, -3.2, -6.44, -8.63, -9.7, -10.45, -11.5, -10.53, -9.62, -7.27, -5.72, -4.05, -6.35, -8.94, -12.49, -15.61, -15.91, -14.75, -14.75, -14.3, -14.3, -13.56, -12.92, -12.54, -11.85, -11.85, -9.86, -9.86, -9.86, -9.5, -9.5, -9.3, -9.3, -9.21, -9.21, -9.21, -8.84, -9.1, -9.35, -9.1, -8.96, -8.96, -9.2, -9.42, -9.01, -8.3, -7.69, -6.16, -5.7, -4.47, -3.58, -3.07, -2.4, -1.58, -1.24, -0.0, -0.0, 0.54, 0.54, 1.24, 1.24, 1.9, 1.9, 1.9, 1.9, 2.4, 2.4, 2.63, 2.68, 3.13, 3.07, 3.39, 3.47, 3.39, 3.39, 3.82, 3.82, 3.87, 4.3, 4.11, 4.11, 4.11, 3.87, 3.82, 4.38, 3.6, 4.0, 3.6, 2.68, 2.68, 4.92, 5.81, 5.73, 2.68, -2.24, -1.34, 1.79, 1.74, 0.82, 0.0, -3.11, -4.83, -4.01, -5.2, -9.54, -11.62, -11.26, -8.94, -7.55, -5.45, -3.83, -3.64, -6.66, -11.08, -15.05, -16.03, -15.63, -15.18, -15.18, -15.12, -14.79, -14.35, -13.6, -13.6, -9.86, -9.86, -9.86, -9.86, -9.5, -9.5, -9.3, -9.3, -9.21, -9.21, -9.21, -9.1, -9.1, -9.1, -9.1, -9.1, -8.96, -9.2, -9.42, -9.01, -8.42, -7.71, -6.3, -5.24, -3.98, -3.13, -2.68, -1.7, -1.2, -0.0, -0.0, 0.6, 0.8, 1.26, 1.26, 1.58, 1.86, 1.86, 1.86, 2.4, 2.6, 2.6, 2.68, 3.13, 3.13, 3.47, 3.9, 2.91, 3.32, 3.32, 3.32, 3.39, 3.39, 3.82, 3.82, 3.39, 3.39, 3.53, 3.39, 4.0, 3.6, 2.97, 2.68, 3.58, 3.9, 4.82, 4.92, 4.02, 0.0, 0.0, 2.24, 2.4, 2.0, 1.58, 0.0, -2.47, -0.84, 0.0, -4.19, -9.75, -11.47, -11.6, -9.21, -7.81, -6.04, -4.47, -3.47, -5.09, -7.92, -11.62, -12.94, -13.34, -15.13, -15.65, -15.95, -15.69, -15.04, -15.04, -9.86, -9.86, -9.86, -9.86, -9.86, -9.5, -9.5, -9.3, -9.3, -9.3, -9.21, -9.21, -9.1, -9.1, -9.48, -9.1, -9.1, -8.96, -9.2, -9.2, -8.68, -8.0, -6.8, -5.81, -4.6, -3.82, -2.68, -1.79, -1.79, -0.45, 0.0, 0.45, 0.89, 1.34, 1.2, 1.6, 1.7, 1.7, 2.12, 2.12, 2.17, 2.17, 2.68, 2.68, 3.13, 3.07, 2.6, 2.6, 2.6, 2.6, 2.6, 2.6, 2.6, 2.6, 2.6, 2.91, 3.07, 3.07, 3.51, 2.91, 2.98, 2.97, 3.13, 3.47, 3.6, 3.6, 3.9, 4.02, 2.68, 1.9, 2.97, 2.4, 0.0, 0.0, 0.85, 0.0, -1.13, 0.0, 0.0, -3.79, -8.14, -9.86, -10.0, -8.43, -7.44, -5.71, -4.47, -3.22, -4.01, -5.05, -7.01, -8.05, -10.7, -12.94, -16.08, -15.5, -14.93, -14.93, -9.86, -9.86, -9.86, -9.86, -9.86, -9.86, -9.86, -9.5, -9.3, -9.3, -9.3, -9.21, -9.21, -9.1, -9.21, -9.21, -9.1, -9.1, -9.1, -8.96, -8.43, -8.15, -7.48, -6.28, -5.08, -3.88, -3.39, -2.4, -1.6, -0.95, 0.0, 0.0, 0.89, 1.34, 1.34, 1.34, 1.34, 1.79, 1.79, 1.79, 2.24, 2.24, 2.24, 2.24, 2.24, 2.17, 2.17, 2.17, 2.17, 2.12, 2.12, 2.12, 2.17, 2.17, 2.17, 2.17, 2.68, 2.68, 3.13, 3.07, 2.4, 3.13, 4.02, 3.58, 3.9, 3.6, 3.35, 2.98, 2.21, 3.13, 2.6, 1.9, 0.0, -1.7, -0.8, 0.0, 0.0, 0.0, 0.85, 0.0, -2.2, -5.46, -7.03, -7.28, -5.93, -5.37, -4.75, -3.85, -4.58, -4.43, -4.54, -4.46, -5.64, -8.05, -10.28, -14.75, -14.23, -14.23, -9.86, -9.86, -9.86, -9.86, -9.86, -9.86, -9.86, -9.86, -9.86, -9.3, -9.3, -9.21, -9.21, -9.21, -9.21, -9.21, -9.21, -9.21, -9.1, -8.55, -8.82, -8.27, -7.35, -6.7, -5.49, -4.65, -3.72, -2.21, -1.9, -0.57, 0.0, 0.0, 0.6, 0.95, 1.2, 1.2, 1.34, 1.79, 1.79, 1.79, 1.79, 1.79, 1.79, 1.79, 1.79, 1.79, 1.79, 1.7, 1.7, 1.7, 1.7, 1.7, 1.79, 1.79, 1.79, 2.24, 2.24, 2.68, 2.68, 3.07, 3.82, 4.02, 4.02, 4.47, 3.47, 2.98, 2.98, 2.98, 2.53, 2.68, 2.97, 2.53, 0.0, -3.33, -3.36, -0.78, 0.79, 2.47, 2.2, 0.69, 0.0, -2.2, -3.55, -4.36, -4.65, -3.47, -3.45, -3.45, -4.65, -5.46, -5.82, -5.06, -4.43, -4.46, -6.55, -11.62, -12.88, -12.88, -10.23, -10.23, -9.86, -9.86, -9.86, -9.86, -9.86, -9.86, -9.86, -9.86, -9.3, -9.3, -9.21, -9.21, -9.21, -8.94, -8.73, -9.01, -8.65, -8.55, -8.55, -8.0, -7.44, -6.79, -5.93, -5.29, -4.07, -2.86, -1.84, -0.65, 0.0, 0.0, 0.71, 0.71, 1.24, 1.26, 1.26, 1.7, 1.7, 1.7, 2.12, 1.7, 1.7, 1.7, 1.79, 1.79, 1.34, 1.34, 1.34, 1.34, 1.6, 1.7, 1.79, 1.79, 1.79, 2.24, 2.24, 2.68, 3.13, 3.53, 2.91, 4.24, 4.02, 4.47, 4.02, 3.2, 2.21, 2.21, 2.21, 2.4, 2.24, 3.2, 0.0, -0.8, -2.49, -0.76, 0.76, 2.41, 2.39, 0.81, -0.76, -2.26, -2.9, -2.9, -3.79, -2.8, -2.77, -4.03, -4.95, -5.82, -6.44, -6.44, -4.65, -2.88, -3.72, -5.09, -10.63, -10.63, -10.23, -10.23, -9.86, -9.86, -9.59, -9.59, -9.59, -9.86, -9.86, -9.86, -9.3, -9.3, -9.21, -8.94, -9.21, -8.73, -8.73, -8.73, -8.38, -8.65, -8.08, -7.73, -7.44, -6.87, -5.69, -5.06, -4.12, -3.12, -2.22, -1.13, -0.51, 0.0, 0.53, 0.65, 1.2, 1.2, 1.24, 1.58, 1.86, 1.86, 1.86, 1.86, 1.7, 1.6, 1.6, 1.2, 1.34, 1.34, 1.34, 1.34, 1.34, 1.6, 1.7, 2.24, 2.24, 2.24, 2.24, 2.68, 3.13, 3.13, 3.07, 2.91, 3.82, 3.39, 3.13, 2.8, 2.4, 2.21, 2.21, 2.4, 3.13, 2.4, 1.41, 0.85, 0.0, -0.78, 0.0, 0.0, 0.0, -0.73, -1.45, -2.29, -3.11, -3.55, -3.79, -3.69, -3.91, -4.26, -4.16, -4.29, -5.06, -5.69, -4.65, -2.8, -1.47, -2.29, -7.47, -7.47, -10.23, -10.23, -10.23, -9.94, -9.94, -9.59, -9.59, -9.59, -9.86, -9.86, -9.3, -9.3, -9.3, -8.73, -8.73, -8.73, -8.73, -8.73, -8.15, -8.15, -8.08, -7.51, -6.92, -6.32, -5.71, -5.08, -4.12, -3.22, -2.4, -1.57, -0.57, 0.0, 0.0, 0.51, 0.61, 1.16, 1.2, 1.61, 1.9, 1.9, 1.58, 1.86, 1.86, 2.0, 1.6, 0.95, 0.95, 0.95, 0.95, 0.89, 1.34, 1.34, 1.79, 2.24, 2.24, 2.24, 2.24, 2.68, 3.13, 3.13, 3.13, 2.68, 3.58, 3.13, 2.68, 3.13, 2.4, 3.39, 3.39, 2.97, 2.68, 2.4, 1.55, 3.6, 1.65, 0.0, -2.47, -2.67, -3.27, -3.0, -2.2, -2.68, -3.79, -4.43, -4.65, -4.56, -4.56, -3.79, -3.33, -3.11, -3.33, -4.03, -4.56, -3.11, -2.6, -2.29, -2.35, -3.9, -10.23, -10.23, -9.94, -9.94, -9.94, -9.94, -9.59, -9.59, -9.59, -9.66, -9.3, -9.3, -9.3, -8.73, -8.73, -8.73, -8.38, -7.86, -7.86, -8.15, -7.55, -7.23, -6.64, -6.32, -5.71, -5.1, -4.1, -3.45, -2.36, -1.7, -0.61, 0.0, 0.0, 0.0, 0.59, 0.59, 1.16, 1.61, 1.88, 1.61, 1.9, 1.24, 1.86, 1.9, 1.58, 1.26, 1.26, 1.26, 0.8, 0.6, 0.95, 1.34, 1.79, 1.79, 2.24, 2.24, 2.24, 2.24, 2.68, 3.13, 3.13, 2.68, 3.58, 2.68, 2.68, 3.58, 3.58, 3.47, 3.9, 4.02, 3.13, 3.13, 1.8, 3.35, 4.01, 1.6, -1.2, -2.68, -3.35, -3.07, -3.22, -3.22, -3.84, -4.46, -4.46, -4.01, -3.64, -3.11, -2.47, -2.47, -2.35, -3.09, -3.91, -3.2, -3.11, -3.11, -3.0, -2.35, -10.23, -10.23, -9.94, -9.94, -9.94, -9.94, -9.59, -9.37, -9.37, -9.3, -9.3, -9.3, -8.78, -8.45, -8.45, -8.73, -8.15, -8.15, -7.59, -7.27, -7.27, -6.95, -6.65, -6.34, -5.72, -4.83, -4.08, -3.42, -2.32, -1.67, -1.16, -0.54, 0.0, 0.0, 0.0, 0.51, 1.13, 1.13, 1.16, 1.16, 1.2, 1.24, 1.24, 1.58, 2.21, 1.24, 1.58, 1.24, 1.24, 1.24, 1.24, 1.86, 2.12, 2.12, 2.12, 2.12, 2.12, 2.68, 2.68, 3.07, 3.07, 2.68, 2.24, 3.58, 3.58, 3.58, 3.13, 3.9, 4.38, 4.02, 3.58, 2.4, 3.13, 4.0, 4.66, 2.97, 0.85, -0.0, -1.79, -1.79, -1.6, -1.9, -2.15, -2.3, -2.53, -2.4, -2.29, -1.72, -2.47, -2.35, -2.51, -2.54, -3.8, -4.12, -4.03, -4.16, -3.9, -3.0, -10.23, -10.23, -9.94, -9.94, -9.94, -9.94, -9.37, -9.37, -9.37, -9.02, -9.3, -8.73, -8.45, -8.45, -8.45, -8.19, -7.86, -7.86, -7.27, -6.97, -6.97, -6.35, -6.35, -5.72, -5.09, -4.71, -4.05, -3.2, -2.29, -1.65, -1.14, -0.53, -0.54, 0.0, 0.0, 0.57, 0.57, 0.59, 1.13, 1.16, 1.2, 1.2, 1.24, 1.49, 1.9, 1.98, 1.9, 1.9, 1.9, 1.88, 1.88, 2.5, 2.5, 2.4, 1.86, 1.86, 2.12, 2.6, 2.6, 3.07, 3.07, 3.07, 3.58, 3.58, 3.13, 3.58, 3.13, 3.82, 3.9, 4.02, 3.58, 3.13, 3.13, 3.13, 3.58, 2.0, 0.88, 0.88, -0.0, -0.0, 1.79, 1.6, 0.7, 0.0, 0.0, -0.74, -1.49, -1.65, -2.4, -2.4, -2.31, -3.32, -3.88, -3.88, -4.96, -4.03, -4.16, -4.16, -9.94, -9.94, -9.94, -9.94, -9.94, -9.42, -9.08, -9.37, -9.02, -8.78, -8.73, -8.73, -8.45, -8.45, -8.19, -8.19, -7.86, -7.59, -7.59, -6.97, -6.67, -6.35, -5.72, -5.72, -5.09, -4.45, -3.81, -3.4, -2.75, -2.29, -1.65, -1.14, -0.53, 0.0, 0.0, 0.0, 0.0, 0.57, 0.59, 0.61, 0.53, 0.65, 1.2, 1.2, 1.2, 1.2, 1.61, 1.9, 1.9, 1.88, 2.21, 2.5, 2.5, 2.15, 1.9, 1.86, 1.86, 2.6, 2.6, 2.6, 3.07, 3.07, 2.63, 3.13, 3.13, 3.58, 3.58, 3.82, 3.9, 3.9, 3.9, 3.47, 3.58, 2.68, 3.58, 2.53, 0.98, 0.98, 1.9, 3.9, 5.09, 4.94, 3.51, 1.4, 0.71, 0.0, -1.52, -2.35, -3.15, -3.15, -3.15, -3.88, -4.6, -4.6, -3.91, -3.2, -3.2, -3.2, -9.94, -9.94, -9.59, -9.94, -9.42, -9.42, -9.08, -9.08, -8.78, -8.78, -8.45, -8.45, -8.45, -8.19, -8.19, -7.9, -7.6, -7.59, -7.59, -6.97, -6.35, -6.35, -5.72, -5.34, -5.09, -4.45, -3.81, -3.37, -2.92, -2.26, -1.76, -1.12, -0.58, 0.0, 0.0, 0.0, 0.0, 0.0, 0.0, 0.0, 0.61, 0.53, 0.65, 1.2, 1.2, 1.2, 1.2, 1.2, 1.49, 1.9, 1.9, 1.9, 1.9, 1.9, 1.9, 2.23, 2.4, 2.4, 2.6, 2.6, 2.63, 3.07, 3.07, 3.58, 3.13, 3.58, 3.58, 4.24, 3.9, 3.9, 3.6, 3.6, 2.98, 2.21, 2.68, 2.0, 1.2, 1.98, 3.79, 5.69, 7.59, 6.36, 4.4, 2.15, 0.72, 0.0, -1.54, -2.35, -4.0, -3.8, -3.8, -3.88, -3.78, -3.21, -3.15, -3.27, -3.27, -3.27, -9.59, -9.59, -9.59, -9.37, -9.42, -9.42, -9.08, -8.82, -8.78, -8.78, -8.45, -8.45, -8.19, -8.19, -8.19, -7.6, -7.6, -7.3, -6.98, -6.97, -6.35, -6.35, -5.72, -5.34, -4.69, -4.45, -4.03, -3.37, -2.73, -2.26, -1.73, -1.2, -0.57, -0.53, 0.0, 0.0, 0.0, 0.0, 0.0, 0.0, 0.0, 0.61, 0.61, 0.61, 0.53, 0.65, 0.65, 1.2, 1.2, 1.24, 1.49, 1.24, 1.24, 1.24, 1.58, 1.9, 1.9, 1.9, 2.23, 2.4, 2.6, 3.07, 2.91, 2.6, 3.58, 3.58, 3.58, 2.97, 3.6, 3.6, 4.09, 3.6, 2.84, 2.21, 1.58, 2.24, 1.98, 2.6, 4.03, 6.53, 7.82, 6.53, 4.32, 1.45, 0.0, -0.72, -1.47, -2.35, -3.32, -4.12, -3.35, -3.15, -3.32, -2.44, -2.44, -3.15, -3.15, -3.15, -9.59, -9.59, -9.59, -9.37, -9.08, -9.08, -8.82, -8.82, -8.5, -8.78, -8.45, -8.19, -8.19, -8.19, -8.19, -7.6, -7.3, -6.98, -6.98, -6.98, -6.08, -5.72, -5.46, -5.34, -4.69, -4.24, -3.56, -3.37, -2.89, -2.23, -1.73, -1.18, -1.1, -0.57, -0.58, -0.53, -0.54, -0.55, 0.0, 0.0, 0.0, 0.0, 0.51, 0.61, 0.61, 0.61, 0.53, 0.65, 0.65, 0.65, 0.54, 1.24, 1.24, 1.24, 1.24, 1.9, 1.9, 1.9, 1.9, 2.23, 2.4, 2.4, 2.4, 2.6, 2.6, 3.13, 3.58, 3.13, 2.98, 3.58, 2.84, 2.98, 2.21, 1.9, 1.58, 1.34, 1.2, 1.83, 3.33, 5.24, 6.53, 4.8, 2.41, 0.7, 0.0, -0.72, -1.36, -2.17, -3.32, -3.35, -2.66, -2.51, -2.54, -2.44, -3.15, -3.32, -3.32, -3.32, -9.59, -9.59, -9.37, -9.37, -9.08, -9.08, -8.82, -8.82, -8.5, -8.5, -8.19, -8.19, -8.19, -8.19, -7.59, -7.3, -7.3, -6.98, -6.98, -6.63, -5.98, -5.72, -5.32, -4.66, -4.44, -4.0, -3.35, -2.86, -2.89, -2.37, -1.71, -1.73, -1.1, -1.2, -1.12, -0.58, -0.59, -0.61, 0.0, 0.0, 0.0, 0.0, 0.0, 0.59, 0.51, 0.61, 0.61, 0.61, 0.53, 0.65, 0.65, 0.65, 0.65, 1.2, 1.24, 1.24, 1.49, 1.9, 1.9, 2.23, 2.23, 2.4, 2.4, 2.91, 2.63, 3.58, 3.58, 3.58, 3.6, 2.98, 2.53, 2.21, 1.9, 1.9, 2.0, 1.79, 2.24, 1.98, 3.35, 3.63, 4.29, 3.32, 2.39, 2.21, 0.75, 0.0, -2.28, -2.83, -3.32, -2.4, -1.83, -1.6, -1.73, -2.54, -2.99, -3.15, -3.15, -3.15, -9.59, -9.59, -9.37, -9.08, -9.08, -8.82, -8.82, -8.82, -8.5, -8.22, -7.9, -8.19, -8.19, -8.19, -7.59, -7.3, -7.3, -6.98, -6.98, -6.34, -6.08, -5.06, -5.06, -4.42, -4.66, -4.0, -3.52, -3.35, -2.86, -2.37, -2.23, -1.71, -1.73, -1.76, -1.12, -1.14, -0.59, -0.54, 0.0, 0.0, 0.0, 0.0, 0.0, 0.0, 0.0, 0.59, 0.61, 0.0, 0.0, 0.53, 0.65, 0.65, 0.65, 0.65, 0.54, 1.24, 1.24, 1.49, 1.9, 1.9, 2.23, 2.23, 2.4, 2.91, 3.07, 3.58, 3.58, 3.13, 3.13, 1.9, 2.21, 2.4, 2.4, 2.4, 2.4, 2.24, 2.24, 2.97, 3.58, 3.58, 3.93, 3.47, 3.6, 2.31, 0.0, -1.4, -2.9, -3.6, -2.29, -1.41, -1.66, -1.83, -1.84, -2.64, -2.35, -2.35, -2.35, -2.35, -9.37, -9.37, -9.37, -9.08, -9.08, -8.82, -8.53, -8.82, -8.22, -8.22, -8.22, -7.9, -7.9, -7.9, -7.59, -7.3, -7.3, -6.98, -6.98, -6.35, -6.35, -5.06, -5.06, -4.63, -4.42, -4.0, -3.52, -3.35, -2.86, -2.89, -2.37, -2.4, -1.73, -1.76, -1.12, -1.14, -0.58, -0.59, 0.0, 0.0, 0.0, 0.0, 0.0, 0.0, 0.0, 0.0, 0.0, 0.0, 0.0, 0.61, 0.53, 0.53, 0.53, 0.65, 0.65, 0.54, 1.24, 1.24, 1.24, 1.58, 1.86, 1.86, 2.4, 2.6, 2.63, 3.13, 2.68, 2.24, 1.79, 1.58, 1.4, 2.21, 2.8, 2.8, 2.4, 2.4, 2.68, 3.13, 3.47, 3.9, 3.39, 3.58, 3.79, 0.88, -2.2, -3.79, -3.64, -3.35, -2.2, -2.29, -2.29, -2.76, -1.83, -1.83, -1.7, -1.55, -1.55, -1.55, -9.37, -9.37, -9.37, -9.08, -8.82, -8.82, -8.53, -8.53, -7.93, -8.22, -8.22, -7.9, -7.9, -7.6, -7.6, -7.3, -6.98, -6.98, -6.98, -6.35, -6.35, -5.46, -5.06, -4.63, -4.66, -4.2, -4.0, -3.35, -3.35, -2.89, -2.89, -2.4, -2.26, -1.63, -1.2, -1.12, -0.58, -0.58, 0.0, 0.0, 0.0, 0.0, 0.0, 0.0, 0.0, 0.0, 0.0, 0.0, 0.0, 0.0, 0.0, 0.0, 0.53, 0.65, 0.65, 0.65, 0.71, 1.24, 1.24, 1.24, 1.86, 1.86, 1.86, 2.17, 2.6, 3.13, 2.68, 2.0, 1.79, 1.79, 1.2, 0.85, 1.2, 2.21, 1.9, 2.4, 2.4, 2.68, 3.13, 3.58, 3.58, 3.39, 2.21, 0.0, -3.63, -5.43, -2.54, -1.34, -2.53, -3.64, -4.56, -3.72, -2.41, -1.98, -0.87, -0.87, -0.87, -0.87, -9.37, -9.37, -9.08, -9.08, -8.82, -8.82, -8.53, -8.24, -7.93, -7.93, -8.22, -8.22, -7.6, -7.6, -7.6, -7.3, -6.98, -6.98, -6.98, -6.35, -6.35, -5.98, -5.32, -5.32, -4.66, -4.66, -4.0, -3.8, -3.56, -2.89, -2.89, -2.4, -2.26, -1.73, -1.2, -1.12, -0.57, -0.58, -0.58, 0.0, 0.0, 0.0, 0.0, 0.0, 0.0, 0.0, 0.0, 0.0, 0.0, 0.0, 0.0, 0.0, 0.0, 0.65, 0.65, 0.65, 0.54, 0.71, 1.24, 1.24, 1.58, 1.58, 1.86, 1.7, 2.12, 2.12, 2.4, 2.24, 1.79, 1.79, 1.58, 1.0, -0.0, -0.0, 1.2, 1.2, 1.58, 2.24, 2.97, 3.39, 3.13, 2.68, 1.58, -1.13, -5.59, -3.58, 1.26, 1.6, -1.26, -3.79, -5.0, -5.06, -3.58, -1.58, -1.2, -1.2, -1.2, -1.2, -9.08, -9.08, -9.08, -9.08, -8.82, -8.82, -8.53, -8.24, -8.24, -7.93, -7.93, -7.61, -7.6, -7.6, -7.6, -7.3, -6.98, -6.98, -6.98, -6.35, -6.35, -5.98, -5.32, -5.32, -4.66, -4.66, -4.0, -4.03, -3.56, -2.89, -2.89, -2.23, -1.73, -1.73, -1.1, -1.2, -0.57, -0.57, -0.58, -0.53, 0.0, 0.0, 0.0, 0.0, 0.0, 0.0, 0.0, 0.0, 0.0, 0.0, 0.0, 0.0, 0.0, 0.0, 0.0, 0.65, 0.54, 0.71, 0.71, 0.71, 1.24, 1.26, 1.26, 1.6, 1.6, 1.6, 2.4, 2.24, 1.79, 1.79, 2.24, 1.58, 1.2, 1.0, 1.26, 0.0, 0.0, 2.24, 2.97, 3.39, 2.68, 2.24, 1.58, -3.48, -4.41, -0.0, 3.74, 3.13, 0.0, -2.84, -4.36, -4.65, -2.84, -1.79, -1.26, -1.26, -1.26, -1.26, -9.08, -9.08, -9.08, -8.82, -8.82, -8.82, -8.53, -8.53, -8.24, -7.93, -7.93, -7.61, -7.61, -7.32, -7.6, -6.98, -6.98, -6.98, -6.98, -6.35, -6.35, -5.98, -5.32, -5.08, -4.66, -4.44, -4.0, -3.8, -3.56, -2.89, -2.89, -2.23, -1.71, -1.73, -1.18, -1.1, -1.2, -0.57, -0.58, -0.58, -0.59, -0.54, 0.0, 0.0, 0.0, 0.0, 0.0, 0.0, 0.0, 0.0, 0.0, 0.0, 0.0, 0.0, 0.0, 0.0, 0.0, 0.0, 0.71, 0.71, 0.57, 0.8, 0.8, 0.95, 0.95, 1.2, 1.2, 0.89, 1.34, 1.34, 2.24, 1.9, 1.2, -0.0, 0.0, 0.0, 1.26, 2.68, 2.98, 2.97, 2.24, 1.79, -1.2, -3.58, -3.58, 3.22, 4.15, 3.13, 1.26, -1.74, -3.72, -3.72, -1.2, 0.0, 0.0, 0.0, 0.0, 0.0, -9.08, -9.08, -9.08, -8.82, -8.82, -8.82, -8.53, -8.53, -8.24, -8.24, -7.93, -7.61, -7.61, -7.32, -7.32, -7.27, -6.98, -6.98, -6.63, -6.35, -6.35, -5.98, -5.72, -5.08, -4.66, -4.44, -4.0, -3.35, -3.35, -3.05, -2.89, -2.37, -2.23, -1.73, -1.73, -1.1, -1.2, -1.12, -0.57, -0.58, -0.53, -0.59, -0.61, -0.55, 0.0, 0.0, 0.0, 0.0, 0.0, 0.0, 0.0, 0.0, 0.0, 0.0, 0.0, 0.0, 0.0, 0.0, 0.0, 0.0, 0.71, 0.57, 0.8, 0.6, 0.95, 0.63, 0.63, 0.0, 0.0, 1.79, 1.58, -0.0, -0.0, -0.0, 0.0, 1.79, 2.68, 2.97, 2.98, 2.21, 1.58, 0.0, -2.24, -4.02, -3.9, 2.21, 3.6, 3.47, 1.79, -0.8, -3.16, -2.21, 0.0, 0.0, 0.0, 0.0, 0.0, 0.0, -9.08, -9.08, -8.82, -8.82, -8.82, -8.53, -8.53, -8.24, -8.24, -8.24, -7.93, -7.61, -7.61, -7.32, -6.98, -6.98, -6.7, -6.7, -6.34, -6.35, -5.98, -5.98, -5.72, -5.08, -4.66, -4.2, -4.0, -3.52, -3.35, -2.86, -2.89, -2.37, -2.23, -2.23, -1.73, -1.73, -1.2, -1.12, -1.12, -1.14, -0.53, -0.59, -0.54, -0.61, -0.55, 0.0, 0.0, 0.0, 0.0, 0.0, 0.0, 0.0, 0.0, 0.0, 0.0, 0.0, 0.0, 0.0, 0.0, 0.0, 0.0, 0.0, 0.57, 0.8, 0.0, 0.0, 0.0, 0.0, 0.0, -0.0, -0.0, -0.0, -0.0, -0.0, 0.0, 0.0, 2.4, 2.98, 1.98, 1.2, -0.0, -2.24, -3.39, -4.82, -4.82, -0.0, 2.6, 3.45, 3.2, 0.89, -1.34, -1.34, -0.0, 0.0, 0.0, 0.0, 0.0, 0.0, -9.08, -9.08, -8.82, -8.82, -8.53, -8.53, -8.53, -8.24, -8.24, -8.24, -7.93, -7.61, -7.61, -7.61, -6.98, -6.98, -6.7, -6.34, -6.34, -6.08, -5.7, -5.7, -5.32, -5.32, -4.66, -4.66, -4.0, -4.0, -3.52, -3.35, -2.86, -2.89, -2.37, -2.23, -2.26, -1.73, -1.63, -1.76, -1.12, -1.14, -1.14, -0.59, -0.54, -0.61, -0.55, -0.55, 0.0, 0.0, 0.0, 0.0, 0.0, 0.0, 0.0, 0.0, 0.0, 0.0, 0.0, 0.0, 0.0, 0.0, 0.0, 0.0, 0.0, 0.0, 0.0, 0.0, 0.0, 0.0, 0.0, 0.0, -0.0, -0.0, -1.0, -0.0, 0.0, -0.0, 1.2, 2.98, 2.21, 1.2, -0.0, -2.24, -3.47, -4.57, -5.29, -3.13, 1.0, 3.84, 3.49, 2.6, -0.0, -0.0, -0.0, 0.0, 0.0, -0.95, -0.95, -0.95, -9.42, -9.42, -8.82, -8.53, -8.53, -8.53, -8.53, -8.24, -8.24, -8.24, -7.93, -7.61, -7.61, -7.61, -6.98, -6.98, -6.98, -6.34, -6.34, -6.34, -5.7, -5.7, -5.29, -5.06, -4.63, -4.66, -4.2, -4.0, -3.52, -3.35, -3.35, -2.89, -2.89, -2.23, -2.26, -1.73, -1.63, -1.76, -1.12, -1.14, -1.14, -1.16, -1.16, -0.54, -0.61, -0.55, -0.55, -0.55, 0.0, 0.0, 0.0, 0.0, 0.0, 0.0, 0.0, 0.0, 0.0, 0.0, 0.0, 0.0, 0.0, 0.0, 0.0, 0.0, 0.0, 0.0, 0.0, 0.0, 0.0, 0.0, 0.0, -0.0, -1.26, 0.0, 0.0, -0.0, 1.0, 1.0, 2.4, 1.26, 0.0, -1.34, -2.68, -3.9, -4.82, -4.47, -1.26, 1.6, 3.16, 2.53, 1.49, -0.0, -0.85, -1.0, -1.58, -1.58, -1.58, -1.58, -9.15, -9.15, -8.53, -8.53, -8.53, -8.53, -8.24, -8.24, -8.24, -8.24, -7.61, -7.61, -7.61, -7.61, -6.98, -6.98, -6.98, -6.34, -6.34, -6.34, -5.7, -5.7, -5.7, -5.06, -4.63, -4.42, -4.66, -4.0, -4.0, -3.35, -3.35, -2.89, -2.89, -2.23, -2.4, -2.26, -1.76, -1.76, -1.65, -1.14, -1.14, -1.14, -1.16, -1.16, -0.61, -0.61, -0.61, -0.61, -0.55, -0.55, -0.63, 0.0, 0.0, 0.0, 0.0, 0.0, 0.0, 0.0, 0.0, 0.0, 0.0, 0.0, 0.0, 0.0, 0.0, 0.0, 0.0, 0.0, 0.0, 0.0, 0.0, 0.0, 0.0, 0.0, 0.0, -0.0, -0.0, -0.0, 1.79, 1.79, 0.0, 0.0, -2.24, -3.58, -4.02, -4.92, -3.58, -0.8, 0.85, 1.74, 1.74, -0.0, -0.76, -0.99, -1.2, -1.0, -1.0, -1.0, -8.85, -8.85, -8.53, -8.53, -8.53, -8.53, -8.24, -8.24, -8.24, -8.24, -7.61, -7.61, -7.61, -7.61, -6.98, -6.98, -6.98, -6.34, -6.34, -6.34, -5.7, -5.7, -5.7, -5.29, -5.06, -4.42, -4.66, -4.2, -4.0, -3.52, -3.56, -3.37, -2.89, -2.92, -2.26, -2.26, -1.76, -1.76, -1.65, -1.8, -1.14, -1.14, -1.14, -1.16, -1.16, -0.54, -0.54, -0.61, -0.61, -0.55, -0.55, 0.0, 0.0, 0.0, 0.0, 0.0, 0.0, 0.0, 0.0, 0.0, 0.0, 0.0, 0.0, 0.0, 0.0, 0.0, 0.0, 0.0, 0.0, 0.0, 0.0, -1.26, -1.79, 0.0, 0.0, -0.0, -0.0, -0.0, 1.26, 1.34, 0.0, -1.79, -2.68, -3.58, -4.02, -4.47, -4.47, -3.58, -1.79, -0.8, -0.0, -0.0, -0.0, -0.85, -1.0, -0.8, -0.8, -0.8, -8.85, -8.85, -8.53, -8.53, -8.53, -8.53, -8.24, -8.24, -8.24, -8.24, -7.61, -7.61, -7.61, -7.26, -6.98, -6.98, -6.98, -6.34, -6.34, -6.34, -5.7, -5.7, -5.7, -5.29, -5.06, -4.42, -4.66, -4.2, -4.0, -4.0, -3.56, -3.37, -2.89, -2.92, -2.26, -2.26, -2.29, -1.76, -1.65, -1.8, -1.8, -1.14, -1.14, -1.05, -1.16, -1.16, -1.16, -0.54, -0.61, -0.61, -0.55, -0.55, -0.57, -0.57, 0.0, 0.0, 0.0, 0.0, 0.0, 0.0, 0.0, 0.0, 0.0, 0.0, 0.0, 0.0, 0.0, 0.0, 0.0, 0.0, 0.0, -0.71, -1.26, 0.0, 0.0, -1.79, -1.26, -0.0, -0.0, -0.0, 0.0, -1.79, -2.4, -2.98, -3.6, -4.34, -4.82, -4.57, -4.0, -3.58, -2.68, -2.0, -1.26, -1.26, -1.34, 0.0, 0.0, 0.0, -8.85, -8.85, -8.53, -8.53, -8.53, -8.53, -8.24, -8.24, -8.24, -8.24, -7.61, -7.61, -7.61, -7.26, -6.98, -6.98, -6.98, -6.34, -6.34, -6.34, -5.7, -5.7, -5.7, -5.29, -5.06, -4.42, -4.66, -4.2, -4.0, -4.0, -3.56, -3.37, -2.89, -2.92, -2.26, -2.26, -2.29, -1.76, -1.65, -1.8, -1.8, -1.14, -1.14, -1.05, -1.16, -1.16, -1.16, -0.54, -0.61, -0.61, -0.55, -0.55, -0.57, -0.57, 0.0, 0.0, 0.0, 0.0, 0.0, 0.0, 0.0, 0.0, 0.0, 0.0, 0.0, 0.0, 0.0, 0.0, 0.0, 0.0, 0.0, -0.71, -1.26, 0.0, 0.0, -1.79, -0.0, -0.0, -0.0, -0.0, 0.0, -1.79, -2.21, -2.84, -2.68, -2.95, -3.93, -3.93, -3.48, -3.58, -3.6, -2.98, -2.21, -1.98, -0.98, 0.0, 0.0, 0.0]}]